GFSGL_500_rhum_069.txt.gz
RH
87 84 80 72 54 44 36 40 58 100 96 98 97 95 98 96 98 96 87 59 45 36 27 11 11 12 14 15 14 17 32 29 28 22 21 24 29 34 41 43 43 47 55
98 98 98 96 96 71 94 80 49 80 93 95 98 96 96 94 92 86 57 37 25 23 14 11 12 15 18 15 14 30 32 29 21 20 28 34 34 37 39 42 50 60 58
97 95 94 97 94 98 95 98 95 96 98 94 87 89 94 94 76 54 56 28 36 19 12 14 14 15 14 16 16 39 40 28 25 28 33 39 41 44 47 53 61 60 61
61 61 95 86 36 56 84 96 97 96 89 84 65 75 67 45 58 54 41 28 33 15 16 17 15 16 19 18 19 39 48 40 36 39 45 47 50 53 56 58 56 60 62
34 57 60 62 59 42 58 62 61 71 74 66 65 71 56 27 33 37 31 33 23 15 16 17 18 18 19 25 31 34 52 51 45 48 55 60 62 64 63 61 61 67 67
23 25 54 69 50 46 43 52 63 68 65 72 78 64 41 20 23 27 36 35 18 16 20 20 21 21 28 32 41 63 70 62 57 57 72 83 72 69 70 71 72 74 62
12 45 53 56 37 38 41 43 52 56 51 60 59 42 27 20 20 35 39 31 18 20 22 23 23 30 43 59 82 87 84 80 75 74 88 86 75 79 76 77 80 77 72
12 26 38 48 45 42 35 34 41 46 60 65 68 62 29 16 19 33 44 33 22 24 26 26 30 42 58 81 81 72 75 73 84 84 86 93 94 92 89 88 88 82 73
17 33 41 40 32 23 30 29 38 63 61 55 57 43 22 16 25 41 47 28 23 24 26 31 39 56 79 95 97 81 72 78 89 95 100 100 100 100 100 98 94 85 75
15 25 22 15 14 20 15 14 16 51 59 55 33 20 18 22 39 50 37 25 26 30 33 38 53 89 95 100 100 97 83 82 89 100 100 100 100 100 100 100 93 88 79
13 20 19 17 15 12 12 14 15 51 28 20 21 23 29 39 48 36 24 25 28 31 35 46 82 99 100 100 100 97 88 93 99 100 100 100 100 100 100 99 97 90 52
10 12 14 12 17 20 16 13 15 17 21 24 27 32 37 44 37 28 26 27 30 40 58 78 99 100 100 100 97 96 98 98 94 100 100 99 96 100 100 99 96 60 13
19 18 16 14 16 22 24 22 18 19 23 27 29 29 30 26 26 26 29 40 57 81 99 100 100 100 100 98 100 100 100 98 100 100 100 99 100 98 97 95 77 17 9
34 28 25 22 21 21 24 23 22 19 19 20 22 24 25 26 28 33 44 55 67 94 100 100 100 100 98 97 99 100 100 100 100 100 100 99 96 95 98 82 25 9 12
62 61 53 46 43 41 39 36 37 43 51 53 59 66 80 93 98 99 100 100 100 100 100 99 99 100 100 100 100 100 100 100 100 100 98 96 96 99 84 22 10 12 14
90 88 89 78 91 98 97 96 95 98 100 100 100 100 100 100 100 100 100 100 100 100 100 100 100 100 100 100 100 100 100 100 100 99 99 99 99 85 26 11 12 14 16
95 97 97 97 100 100 100 99 100 99 100 100 100 100 100 100 100 100 100 100 100 100 100 100 100 100 100 100 100 100 100 100 100 100 100 100 85 19 12 12 14 16 17
100 100 100 100 100 97 97 100 100 100 100 99 93 89 82 82 93 98 100 100 100 100 100 100 100 100 100 100 100 100 100 100 100 100 99 66 14 12 13 14 16 16 17
100 100 100 100 100 100 100 100 100 100 100 100 100 100 100 96 85 90 100 100 98 99 100 100 99 99 99 100 100 100 100 100 100 93 33 13 13 14 15 16 17 18 18
74 66 83 42 43 68 100 100 100 100 98 82 91 100 100 100 100 100 100 100 100 100 99 100 100 100 100 100 100 100 100 98 51 14 14 14 15 16 17 18 19 19 21
24 27 25 26 76 96 100 100 82 59 59 58 91 84 99 100 100 100 100 100 100 100 100 100 100 100 100 100 100 97 53 14 14 14 15 16 17 18 19 19 20 22 31
21 31 44 61 81 89 92 94 91 95 100 98 98 100 100 100 100 100 100 100 100 100 100 100 100 100 99 84 42 14 13 14 16 16 18 19 20 20 21 21 23 33 44
45 71 100 100 100 100 100 100 100 100 100 99 99 100 100 100 100 100 100 100 100 100 100 100 90 55 22 12 13 14 15 17 18 19 19 21 22 22 22 25 38 51 36
100 100 100 100 100 100 100 100 100 100 100 100 100 100 100 100 100 100 100 100 98 80 40 16 11 12 12 14 15 15 15 16 19 20 20 21 21 24 27 42 59 40 42
100 100 100 100 100 100 100 100 100 100 100 100 100 100 100 100 99 86 53 20 11 11 11 11 12 12 12 13 14 16 19 20 20 19 17 19 28 35 56 67 43 46 52
100 100 100 100 100 100 100 100 100 100 100 100 97 86 56 22 12 10 10 10 10 10 10 11 11 12 14 16 18 18 18 16 14 14 19 31 53 76 71 44 49 57 56

GFSGL_500_rhum_072.txt.gz
RH
82 80 88 89 96 97 96 92 42 68 62 64 79 100 94 99 98 92 97 100 100 99 98 85 57 35 33 12 14 17 19 16 15 17 19 39 45 36 33 38 45 53 63
99 93 93 97 97 99 100 100 88 89 74 40 50 81 76 76 86 97 98 98 96 95 96 64 36 32 15 15 18 19 20 19 17 18 21 30 52 52 47 47 56 74 84
50 90 94 96 76 100 69 78 96 95 99 93 93 99 96 95 96 99 97 96 92 94 91 74 46 36 15 16 16 18 19 17 20 23 24 40 69 69 64 64 68 88 86
41 54 53 53 65 97 40 42 62 97 96 98 97 98 100 80 88 70 62 70 74 57 65 48 31 26 16 18 20 18 19 24 28 27 41 66 65 72 74 74 79 85 81
55 53 37 27 60 64 67 59 58 59 86 61 72 84 96 80 70 74 64 38 34 47 62 39 35 24 17 19 19 22 24 29 33 50 79 80 71 69 71 72 68 68 72
67 55 46 48 46 72 89 63 48 46 56 56 55 66 70 94 87 91 59 38 27 19 25 33 37 25 20 20 25 29 30 32 50 85 100 100 96 88 82 81 81 72 70
64 53 51 44 32 68 86 71 72 64 60 75 84 81 62 80 81 92 84 69 44 26 21 32 39 31 23 28 30 30 34 54 87 92 100 100 100 100 94 91 88 80 84
60 35 25 15 15 34 52 68 64 56 45 62 77 58 66 73 70 84 88 75 21 14 20 32 41 29 27 28 30 33 40 80 89 100 100 100 100 99 90 83 85 78 81
39 23 19 13 14 34 43 45 50 74 63 36 24 50 57 65 69 99 73 28 17 20 32 46 39 25 27 31 37 48 70 89 100 100 100 100 98 97 94 90 87 81 79
29 21 16 16 38 40 29 17 17 21 20 14 15 18 29 66 83 44 20 22 26 37 48 48 35 32 33 40 54 91 100 100 100 100 100 99 97 98 98 94 93 93 91
58 44 27 14 12 17 14 15 13 16 19 17 19 43 62 41 25 27 32 37 45 47 47 45 44 45 51 66 83 98 100 100 100 100 100 100 100 100 100 100 100 96 96
60 40 32 30 26 20 16 16 16 15 17 22 31 50 28 26 30 32 40 43 44 44 49 55 66 86 98 100 100 100 100 100 100 100 100 100 100 100 100 100 100 100 100
56 57 51 33 28 24 21 18 16 19 24 28 32 24 26 23 23 30 38 49 58 76 97 100 100 100 100 100 99 100 100 100 100 100 100 100 100 100 100 100 100 100 100
65 83 59 46 52 53 55 55 52 51 50 48 52 57 62 72 85 94 97 100 100 100 100 100 100 99 98 100 100 100 100 100 100 100 100 100 100 100 100 100 100 100 100
100 85 94 86 84 86 87 91 88 82 84 92 97 100 100 100 100 100 100 100 100 100 100 100 100 94 91 96 99 100 100 100 100 100 100 100 100 100 100 100 100 100 100
99 90 95 95 91 93 97 98 96 91 90 94 98 100 100 100 100 100 98 93 94 99 100 100 100 100 99 93 97 100 100 100 100 100 100 100 100 100 100 100 100 100 89
90 96 97 93 97 97 98 100 100 100 100 100 96 90 97 100 100 100 100 100 100 100 100 98 100 100 100 100 100 100 100 100 100 100 100 100 100 100 100 100 100 87 28
92 96 89 92 99 100 100 100 100 100 100 100 100 100 100 100 100 100 100 100 98 78 87 99 100 100 100 100 100 100 100 100 100 100 100 100 100 100 100 99 60 16 13
100 98 94 98 100 98 99 98 96 96 97 97 87 69 84 100 100 99 95 90 97 100 100 99 99 100 100 100 100 100 100 100 100 100 100 100 100 99 75 22 14 15 16
94 88 94 97 88 67 74 55 40 50 72 70 57 66 79 95 100 100 100 100 100 100 100 100 100 100 100 100 100 100 100 100 100 100 100 95 53 19 15 15 16 16 16
99 99 91 72 47 18 18 20 28 38 60 86 97 100 100 100 100 100 100 100 100 100 100 100 100 100 100 100 100 100 100 100 98 66 18 16 16 16 16 16 17 18 18
66 37 24 19 17 18 26 42 62 75 95 100 100 100 100 100 100 100 100 100 100 100 100 100 100 100 100 100 98 86 49 18 15 15 15 15 15 16 17 18 19 22 21
33 30 34 61 92 100 100 100 100 100 100 100 100 100 100 100 100 100 100 100 100 100 100 100 99 84 55 24 13 12 12 12 13 13 12 14 17 19 21 21 21 20 21
98 100 100 100 100 100 100 100 100 100 100 100 100 100 100 100 100 100 100 100 99 86 62 33 13 9 9 10 10 11 11 11 13 15 17 19 20 20 19 17 16 21 32
100 100 100 100 100 100 100 100 100 100 100 100 100 100 100 100 99 90 67 38 17 9 8 8 9 9 10 10 10 12 13 14 15 16 16 16 15 15 15 16 24 43 62
100 100 100 100 100 100 100 100 100 100 100 100 99 90 62 30 16 9 8 8 8 9 9 9 9 9 10 11 13 13 13 11 10 10 10 11 13 15 20 39 60 68 57

GFSGL_500_rhum_075.txt.gz
RH
79 94 88 73 84 90 98 99 99 89 56 61 82 74 82 92 99 97 99 98 100 100 100 91 92 96 99 97 94 93 42 20 15 16 19 21 24 24 25 22 25 47 69
92 98 99 97 95 98 98 97 84 94 97 64 62 67 52 63 96 99 96 95 97 99 99 99 99 98 98 97 97 69 47 18 15 17 18 21 24 22 22 35 58 81 80
36 49 65 84 94 80 74 77 98 58 82 93 93 98 100 65 74 99 91 83 95 100 100 98 98 96 99 89 72 44 35 22 15 16 20 21 20 20 25 40 67 90 100
36 36 35 52 61 53 48 70 90 40 38 88 97 99 96 93 95 99 95 91 96 99 99 96 82 68 60 69 78 49 33 25 17 20 21 21 23 23 33 48 81 86 100
44 39 46 46 44 46 43 49 63 68 58 58 61 81 91 99 99 99 99 89 81 82 62 56 43 39 42 68 46 25 33 31 22 21 21 22 25 31 39 63 77 94 98
59 57 55 59 56 50 41 43 53 84 77 60 56 68 84 63 69 77 82 78 81 80 75 68 65 72 59 43 19 31 43 42 27 24 25 29 34 44 79 98 87 95 99
82 77 61 59 53 42 45 36 42 90 88 73 78 68 67 80 85 75 78 79 68 69 68 76 80 86 34 17 24 36 43 31 26 30 34 41 75 93 98 88 94 95 94
90 68 54 58 57 34 27 18 20 41 56 62 60 55 54 76 70 63 63 62 64 72 72 78 84 65 20 23 34 46 45 36 39 43 48 64 88 100 96 97 96 91 97
99 69 45 43 34 24 19 13 13 33 41 33 24 36 49 48 20 23 30 24 50 56 93 100 97 25 28 40 46 48 46 54 57 80 98 100 96 97 98 96 93 90 93
77 70 73 75 37 22 18 16 21 39 36 24 19 19 17 18 15 18 20 33 50 94 99 99 35 35 39 49 56 65 88 100 100 98 95 96 100 100 97 96 94 95 99
96 92 70 71 67 41 51 36 27 22 24 14 14 15 15 14 17 26 39 71 59 100 88 34 27 40 57 78 97 100 100 100 100 99 100 100 100 100 98 98 98 97 94
100 75 62 48 67 82 75 47 34 34 25 23 22 22 22 34 41 34 46 94 100 32 34 56 83 97 100 100 100 100 100 100 100 100 100 100 100 100 100 100 100 99 97
76 86 92 95 88 76 67 64 57 62 64 61 60 58 57 53 50 52 96 52 65 91 96 100 100 100 100 100 100 100 100 100 100 100 100 100 100 100 100 100 100 100 100
90 97 96 98 98 96 98 97 84 97 98 95 92 89 88 94 99 93 94 99 100 100 100 100 100 100 100 100 100 100 100 100 100 100 100 100 100 100 100 100 100 100 100
99 99 88 90 91 95 95 99 97 95 94 97 97 97 98 98 100 100 100 100 100 100 100 100 100 100 100 100 100 100 100 100 100 100 100 100 100 100 100 100 100 100 100
67 82 95 100 96 98 98 97 96 97 96 92 100 100 100 100 100 100 100 100 100 100 100 100 100 100 100 100 100 100 100 100 100 100 100 100 99 100 100 100 100 100 100
93 99 97 94 99 97 98 98 99 98 100 98 100 100 100 100 99 100 100 100 100 100 100 98 99 100 100 100 100 100 100 100 100 99 98 99 100 100 100 100 100 100 100
100 100 99 100 100 93 100 100 100 99 100 100 100 100 100 100 100 100 100 98 93 83 83 88 98 100 100 100 99 98 96 92 92 91 95 100 100 100 100 100 100 100 99
100 100 99 98 99 100 100 100 97 88 91 99 97 95 94 82 55 54 51 52 67 86 100 100 100 98 94 93 91 89 86 88 92 96 98 100 100 100 100 98 75 30 15
100 100 100 100 100 100 100 99 99 93 77 58 54 36 24 24 31 37 44 60 79 95 100 95 91 89 88 88 89 92 95 99 100 100 100 99 77 39 18 14 14 13 14
92 100 98 97 100 100 93 91 80 62 40 32 25 19 22 40 62 86 96 98 96 90 88 86 85 88 92 94 97 100 100 98 72 34 14 12 11 11 12 12 12 13 15
96 100 97 85 87 92 92 85 72 62 47 38 51 86 99 97 98 97 96 95 92 90 91 94 96 97 98 96 81 51 21 10 9 9 9 10 10 11 11 13 16 17 19
98 89 82 82 81 93 95 71 74 87 96 99 99 99 97 96 93 91 90 92 94 96 96 95 91 72 45 20 9 8 7 8 9 9 9 10 12 14 15 16 17 18 18
100 100 100 100 97 97 99 100 100 100 100 100 100 99 99 99 99 98 98 98 96 84 61 34 15 8 7 8 8 8 9 9 9 11 13 14 13 12 11 12 12 13 16
100 100 100 100 100 100 100 100 100 100 100 100 100 100 100 100 98 94 76 45 22 9 6 7 8 8 9 9 9 9 11 12 12 10 9 8 8 9 9 10 12 15 20
100 100 100 100 100 100 100 100 100 100 100 100 99 96 84 60 30 12 7 7 7 8 9 9 9 9 10 12 14 13 11 9 9 8 7 6 7 8 10 14 20 40 59

GFSGL_500_rhum_078.txt.gz
RH
29 42 60 74 75 76 83 82 91 91 81 53 44 47 59 70 77 78 81 87 90 91 96 97 96 94 96 96 95 94 98 99 99 98 75 56 39 21 17 18 20 21 21
29 35 55 68 80 78 85 84 68 81 75 84 91 75 55 69 69 68 78 79 98 98 99 96 93 99 99 99 100 100 98 98 96 75 64 48 35 30 21 18 22 24 25
34 42 45 36 39 47 84 68 52 56 63 83 64 73 79 59 70 76 68 57 60 70 82 84 86 99 100 99 99 98 99 91 53 76 82 58 33 32 27 22 22 22 24
45 46 39 36 38 39 52 56 48 34 44 71 46 33 66 74 75 98 94 87 76 85 94 77 77 97 98 98 96 94 60 46 59 51 49 25 26 34 36 29 24 24 30
62 49 45 44 41 35 37 49 48 43 39 45 59 61 56 56 66 100 98 98 78 88 98 93 82 68 70 63 61 79 62 67 98 98 23 16 24 33 39 27 26 31 37
71 61 63 60 52 60 56 46 48 50 39 36 46 72 68 61 55 69 76 76 84 79 81 73 70 77 70 66 73 73 71 84 64 25 20 26 36 39 28 28 32 42 80
74 78 76 80 72 76 65 72 60 57 48 44 40 80 84 67 72 71 61 65 79 79 80 80 71 67 65 62 64 74 85 83 70 25 34 40 42 31 41 59 80 85 92
66 62 66 93 89 62 45 47 57 40 33 39 53 66 60 61 64 63 60 53 50 36 39 48 43 34 36 54 86 95 99 100 73 32 40 44 56 85 92 93 97 89 95
90 80 81 97 77 70 38 39 33 25 20 16 25 46 55 58 42 35 35 39 37 31 26 24 21 26 36 68 98 100 98 99 40 31 55 86 98 99 100 100 100 100 100
100 100 98 74 95 68 41 38 32 24 32 23 16 27 40 38 33 26 31 27 38 33 26 25 27 44 70 100 100 100 98 39 33 93 97 92 100 100 100 100 100 100 100
98 91 94 82 80 82 51 40 44 38 44 40 21 14 15 16 19 16 23 26 28 23 24 29 32 55 70 71 100 47 34 72 100 100 96 100 100 100 98 100 100 100 100
96 100 97 96 84 95 77 53 59 73 81 92 64 50 50 43 31 28 28 29 31 40 40 38 43 99 100 99 96 89 100 99 98 100 99 99 98 100 99 99 99 100 100
99 100 99 100 89 98 98 99 98 99 99 92 87 74 74 80 86 90 87 92 95 96 83 88 98 100 100 96 99 100 98 100 99 98 100 100 100 100 100 99 100 100 100
99 99 95 100 98 97 99 96 91 100 96 95 100 100 98 99 93 91 96 98 96 96 100 100 100 100 100 100 100 99 95 99 100 100 100 100 100 100 100 100 100 100 100
97 98 98 98 100 94 95 96 98 100 94 94 97 96 98 99 100 100 98 98 100 100 98 89 100 100 95 97 100 100 100 100 100 100 100 100 100 100 100 100 100 100 100
89 89 95 100 100 98 84 100 96 99 97 99 97 98 99 100 95 91 93 96 93 91 97 98 87 92 98 96 98 98 99 100 100 100 100 100 100 97 95 97 95 96 98
96 95 100 100 98 92 90 100 100 98 100 97 100 100 100 100 100 98 100 100 100 100 100 100 97 97 100 100 100 100 100 99 100 100 99 92 89 86 86 91 94 97 100
100 100 86 100 100 99 100 100 99 100 100 100 100 100 94 98 99 100 100 100 100 100 100 100 100 100 100 98 94 100 100 100 99 91 88 85 84 86 89 90 95 98 90
100 100 100 100 100 100 100 100 100 100 100 100 100 100 100 100 100 98 96 75 52 46 47 49 61 84 98 100 100 100 96 90 88 87 85 83 82 85 87 68 33 11 9
100 100 100 100 98 100 100 100 99 99 100 100 100 100 100 100 98 93 90 80 62 48 48 69 97 100 100 99 96 91 88 89 87 84 82 81 67 32 11 7 8 8 9
100 99 100 100 100 100 100 100 96 96 98 99 98 99 100 100 100 87 72 66 75 99 100 100 99 100 99 96 93 93 89 84 79 67 34 8 6 6 7 7 8 9 10
85 83 91 99 100 100 100 100 100 100 100 97 100 100 100 100 100 100 100 100 100 100 100 100 100 100 97 93 86 77 63 34 11 6 6 6 7 7 7 7 9 12 13
95 100 100 100 100 100 100 100 100 100 100 100 100 100 100 100 100 100 100 100 100 100 100 96 91 85 73 54 28 11 6 6 7 6 6 6 6 8 9 9 9 9 9
93 93 99 100 100 100 100 100 100 99 100 100 100 100 100 100 99 99 100 99 90 83 78 70 46 17 8 6 7 7 7 7 7 7 8 9 9 8 7 7 7 6 7
100 94 88 95 100 100 100 100 100 100 100 100 100 100 100 100 98 90 85 75 61 38 16 6 6 7 7 8 8 7 8 8 9 10 9 8 8 7 6 5 5 7 9
100 100 100 100 100 100 100 99 100 100 100 100 99 94 83 68 48 29 14 8 6 6 7 8 8 8 8 8 9 10 12 12 10 9 10 10 9 8 9 9 12 17 20

GFSGL_500_rhum_081.txt.gz
RH
21 21 21 33 52 63 67 65 71 72 67 57 45 28 25 30 35 42 56 60 63 75 79 78 90 97 96 94 97 94 92 98 94 100 92 93 99 92 42 49 61 65 30
24 32 34 26 32 33 34 46 62 62 55 62 60 62 64 66 44 38 50 56 61 69 78 80 95 95 88 87 86 92 87 100 98 98 96 96 97 49 41 54 59 38 16
27 41 42 34 36 38 27 21 29 60 53 47 53 59 74 63 63 69 57 63 61 65 64 62 76 66 60 85 82 80 88 100 99 98 96 94 73 59 94 93 82 25 16
35 48 51 43 44 39 33 26 27 31 34 36 30 30 39 50 36 38 68 65 70 84 90 83 81 66 79 84 79 76 74 90 99 98 84 91 84 92 89 58 26 22 23
50 52 54 59 52 47 44 42 38 34 36 36 31 32 32 32 50 51 41 62 61 63 91 98 83 76 89 86 83 76 72 80 79 82 82 78 84 74 79 62 33 24 25
73 68 66 60 60 51 53 50 45 47 63 67 52 43 41 30 34 64 60 54 52 54 61 74 80 96 82 76 75 74 75 73 78 68 87 83 82 90 100 100 68 49 40
77 76 82 78 73 69 66 58 62 67 68 56 55 59 50 43 37 56 89 65 66 67 60 54 67 76 75 71 74 70 85 76 48 45 64 90 100 89 100 100 92 52 86
83 68 71 82 89 82 72 63 72 79 52 47 46 56 41 49 47 66 84 58 62 59 63 65 66 61 50 46 49 60 58 49 32 40 100 95 100 100 100 96 55 86 99
61 96 91 98 94 96 86 81 83 60 45 30 38 36 35 31 39 57 68 65 58 56 42 35 41 46 37 38 35 35 41 28 39 64 100 100 100 100 97 69 94 98 97
87 100 96 93 96 79 99 95 97 62 52 42 41 36 47 50 42 24 23 40 43 42 38 29 29 26 31 39 35 26 26 35 69 100 81 98 100 100 100 93 100 99 99
91 86 95 100 92 100 99 92 78 70 81 42 63 72 48 52 66 59 37 22 28 25 24 23 22 24 26 25 29 38 40 53 97 100 92 97 100 100 100 100 100 99 100
100 98 97 99 90 97 75 91 95 71 82 98 87 80 73 80 84 86 70 58 61 56 47 40 42 50 54 69 84 82 73 99 93 100 100 100 100 100 100 100 100 100 100
97 100 98 98 97 100 99 96 95 92 97 93 99 98 98 97 98 100 97 76 78 85 85 86 95 98 97 96 94 100 100 100 100 100 100 100 99 100 100 100 100 94 97
100 100 97 98 99 79 92 99 100 91 100 98 94 98 99 86 100 86 86 94 98 98 100 99 98 99 98 100 100 98 100 100 100 100 100 100 98 99 100 100 100 100 95
99 99 99 97 98 98 99 98 97 100 98 98 95 87 82 93 98 97 84 85 93 99 100 100 98 96 98 98 100 100 99 100 100 100 100 100 100 99 100 100 98 88 95
95 92 94 97 100 98 96 98 99 98 100 97 94 99 100 95 99 99 99 98 98 100 100 99 99 100 100 100 100 100 100 100 100 100 100 100 100 96 89 85 96 100 100
84 81 83 80 89 96 97 93 85 83 90 100 100 100 89 100 99 100 99 100 100 100 99 100 100 100 100 100 100 100 100 100 100 100 100 92 80 100 99 100 100 94 90
98 99 98 100 99 98 93 96 98 96 99 100 100 100 100 100 100 100 100 100 100 100 100 100 100 100 99 96 95 93 88 68 60 64 77 90 94 98 97 92 85 76 73
100 100 100 100 99 99 100 100 99 100 100 99 100 100 100 100 100 100 100 100 100 100 100 100 100 100 99 99 94 75 70 83 92 92 92 94 91 84 75 68 62 52 34
100 100 100 100 100 100 100 100 100 100 100 100 100 99 100 100 100 100 100 100 100 100 99 97 99 100 91 81 85 88 91 93 92 90 85 78 72 66 54 36 16 6 6
96 99 100 100 100 100 100 100 100 100 100 98 100 100 100 100 100 100 100 100 100 99 97 95 91 90 93 96 100 100 95 90 86 81 72 55 36 15 6 6 5 5 5
100 100 100 100 100 100 100 100 100 100 100 100 100 100 100 100 98 100 100 100 100 100 100 100 100 100 99 98 96 95 89 74 55 31 14 6 6 5 5 5 5 6 6
73 84 97 100 100 100 100 100 100 100 100 100 100 100 100 100 100 100 100 100 100 100 100 100 100 100 97 87 65 39 18 8 7 7 6 6 6 6 6 6 7 7 7
86 89 92 100 100 100 95 98 99 100 100 100 100 100 100 99 100 100 100 100 98 96 99 95 70 37 16 9 7 7 6 6 6 6 6 6 7 8 9 8 7 8 7
100 100 100 100 96 98 100 100 100 100 100 100 100 100 100 100 100 98 97 96 87 64 27 10 8 8 7 6 6 6 7 7 7 8 8 10 10 10 9 10 11 10 9
96 100 99 98 98 100 100 100 100 100 100 100 100 100 99 96 80 56 32 15 12 10 9 8 6 6 7 7 7 8 8 9 10 12 12 11 12 15 21 20 19 22 25

GFSGL_500_rhum_084.txt.gz
RH
16 20 23 22 22 29 51 52 51 57 64 65 57 47 45 29 28 29 33 40 46 54 63 68 83 94 95 98 99 98 98 94 80 85 90 83 86 98 98 90 91 87 72
19 20 22 32 37 30 27 25 25 25 49 57 51 57 55 55 55 58 62 46 56 74 79 81 81 84 84 86 92 90 96 79 70 80 77 72 87 98 98 100 94 92 56
26 24 24 29 43 38 35 34 31 25 24 54 57 48 45 50 56 66 61 57 70 69 63 63 69 69 78 90 91 83 80 69 81 76 60 65 61 100 94 93 100 78 84
39 40 33 33 46 46 44 44 40 33 25 27 29 33 34 30 34 33 41 42 37 50 80 68 66 74 80 100 100 98 88 82 85 85 72 63 79 87 99 90 74 98 99
53 51 50 50 56 53 53 54 49 45 42 40 35 37 42 52 39 35 34 42 51 51 45 67 69 71 85 82 100 100 89 88 96 91 84 86 84 74 76 70 66 97 67
64 63 66 68 70 69 65 61 55 52 53 56 56 64 67 70 61 58 48 41 44 58 61 54 58 67 77 75 68 80 95 88 84 83 79 69 90 100 99 51 38 43 81
70 72 69 66 69 75 73 70 67 62 70 71 74 74 69 66 60 72 67 52 44 44 57 85 72 79 80 69 59 67 78 78 82 61 44 68 98 84 54 67 53 99 99
73 63 60 63 74 65 61 77 89 85 78 66 70 82 76 48 41 41 60 56 58 58 66 85 80 82 79 73 79 75 70 66 53 48 49 58 40 41 33 32 58 78 95
81 73 75 99 89 60 53 57 96 82 84 70 66 80 70 44 34 44 48 35 37 49 64 61 60 66 70 63 61 53 52 55 54 34 41 40 48 27 30 43 69 100 98
84 93 89 83 74 70 88 78 98 86 72 59 71 89 48 43 38 34 37 48 58 51 45 29 32 32 35 43 49 44 28 29 31 23 29 32 76 56 57 78 100 100 100
78 77 88 100 90 82 78 95 91 92 66 93 94 91 69 74 84 71 57 59 46 47 58 63 54 43 39 46 51 53 45 39 36 45 54 83 96 100 100 100 100 99 99
100 100 86 77 97 96 88 83 91 74 69 96 98 95 67 77 86 90 100 96 85 73 73 71 74 75 74 71 67 59 57 63 77 95 100 98 95 85 99 100 100 100 100
100 100 100 93 90 98 100 100 100 84 67 66 96 87 86 62 71 85 90 96 99 98 90 86 91 80 89 91 88 87 89 98 100 100 100 97 97 98 100 100 100 100 100
95 100 96 98 93 92 98 100 98 95 100 95 99 98 88 67 72 82 100 98 99 98 98 98 98 90 92 86 91 99 99 100 100 100 100 100 100 100 100 100 100 100 100
74 92 100 100 93 90 99 99 97 97 93 94 90 81 74 87 98 92 98 100 98 86 72 95 97 98 100 100 100 100 100 100 100 100 100 100 100 100 100 100 98 97 100
74 98 91 95 90 88 99 99 99 99 97 94 87 92 95 91 98 98 99 98 97 97 96 100 99 100 100 100 100 100 100 100 100 100 100 100 100 100 100 100 99 96 87
81 87 100 99 100 100 100 99 87 76 64 61 90 72 80 93 99 97 99 98 100 100 100 100 100 100 100 100 100 100 100 100 100 100 100 100 94 92 91 83 74 77 80
64 83 73 96 100 100 98 89 78 67 100 70 98 100 79 83 99 99 97 98 100 100 100 100 100 100 100 100 100 99 100 100 99 97 89 86 86 85 85 83 77 76 73
41 60 72 80 98 97 100 100 100 100 99 100 98 100 94 100 100 100 99 100 100 100 100 98 100 100 100 100 100 99 98 97 92 82 76 73 74 75 78 78 77 72 57
94 86 95 94 100 99 99 100 100 100 100 98 100 99 100 100 100 100 100 100 98 100 100 100 100 100 100 98 97 98 98 97 94 89 85 83 81 79 73 55 33 19 17
93 92 84 86 95 100 100 100 100 100 100 100 100 100 100 98 99 100 100 100 100 100 100 100 100 95 96 98 100 100 99 96 93 92 92 77 55 25 15 15 15 10 5
95 85 71 68 76 84 91 94 90 92 95 98 100 100 100 100 100 100 100 100 100 100 100 100 100 100 100 100 99 99 100 94 72 46 31 26 24 17 10 5 5 5 5
100 98 99 100 93 87 91 90 85 91 100 100 100 98 99 100 100 100 100 100 100 99 99 100 100 100 99 96 88 72 56 46 35 25 18 11 6 5 5 5 6 6 7
100 100 100 99 97 91 90 91 91 98 100 100 100 100 98 92 91 97 99 98 100 100 100 96 88 79 67 56 43 29 25 19 14 8 6 6 6 6 7 8 8 9 8
100 100 100 100 99 91 92 92 92 90 88 90 92 93 93 95 97 98 99 95 88 76 57 47 46 38 28 21 16 9 7 6 6 6 7 7 8 10 10 11 12 16 21
100 100 100 97 92 90 89 88 86 90 94 92 90 91 92 92 89 83 69 55 45 37 28 19 13 11 9 8 7 8 8 7 8 9 10 12 13 13 14 18 30 42 42

GFSGL_500_rhum_087.txt.gz
RH
16 16 18 22 24 25 28 50 55 46 53 61 60 56 54 37 31 25 26 27 30 39 48 77 83 82 90 94 95 88 84 90 83 89 92 96 77 71 83 89 70 68 100
23 18 17 22 30 37 35 31 33 30 24 33 66 57 59 63 56 51 48 40 48 42 49 49 56 55 61 78 92 87 83 85 79 77 84 86 74 81 85 90 56 62 88
34 28 21 21 24 33 45 40 36 37 36 28 33 68 57 49 51 48 58 61 70 61 67 72 70 66 75 78 79 72 77 85 84 80 85 86 86 85 98 89 70 87 91
47 48 34 28 29 30 36 47 46 47 47 35 32 28 29 36 38 36 39 38 44 50 45 44 51 62 81 75 82 85 83 96 96 98 97 92 96 100 99 94 95 95 100
35 46 62 48 48 44 39 43 55 58 60 51 46 47 45 39 33 46 61 60 55 45 43 50 59 64 84 86 79 85 86 85 97 95 98 96 94 100 95 84 70 99 99
48 45 54 62 66 66 68 71 70 72 63 60 53 57 62 67 69 74 72 68 60 53 55 49 40 56 66 63 86 69 70 83 89 86 82 87 99 92 92 69 41 56 97
88 83 72 57 53 55 60 68 65 64 64 62 64 74 80 77 75 86 87 76 47 54 54 62 55 48 67 86 98 94 87 95 98 98 88 73 77 70 90 55 41 97 100
99 95 95 84 73 73 72 56 56 64 66 59 56 70 75 83 80 88 94 64 45 38 50 50 44 60 68 73 97 98 86 74 70 71 70 59 52 48 41 97 76 25 35
55 87 90 80 78 81 80 66 70 68 51 72 70 78 60 65 76 89 99 66 48 39 33 45 48 40 36 42 57 71 60 52 46 38 37 40 68 29 40 61 81 35 96
26 24 61 62 80 98 93 86 83 95 80 94 73 97 95 91 64 74 100 94 70 55 45 45 54 55 50 52 54 46 42 44 46 47 48 48 51 64 76 88 74 65 100
25 22 13 25 44 65 77 92 95 90 95 94 91 95 98 95 98 100 98 96 93 95 86 88 86 92 73 63 71 77 80 80 74 71 87 78 98 87 69 70 88 99 88
22 23 18 12 13 33 64 89 100 94 86 84 87 80 85 94 92 92 87 99 83 84 74 72 69 93 100 99 99 96 92 86 97 79 76 74 73 92 91 97 100 100 100
37 35 33 22 14 15 59 72 82 100 100 99 96 98 97 97 100 98 80 95 100 94 69 63 61 66 97 98 96 100 96 90 85 85 93 97 100 99 98 100 100 100 100
48 49 52 60 66 47 58 81 88 97 99 100 100 95 98 92 84 86 88 84 100 96 100 76 100 94 83 97 98 98 99 100 100 100 100 100 100 100 100 100 100 100 100
28 38 50 57 60 80 86 80 91 98 95 86 93 88 99 94 90 92 91 99 93 86 97 98 99 96 97 97 99 100 100 97 99 100 98 94 100 100 100 100 99 98 98
12 13 30 69 56 53 64 70 78 74 86 100 88 76 90 98 94 96 97 83 87 88 100 94 85 100 100 98 100 97 95 95 99 95 100 100 100 100 100 100 100 100 96
11 10 11 11 43 38 61 60 87 100 100 61 78 100 83 95 84 76 98 99 84 61 86 100 98 98 99 99 100 99 100 100 100 100 100 100 100 100 100 100 98 88 76
11 10 9 8 9 11 20 41 62 89 96 100 100 98 100 97 98 98 100 96 98 100 97 100 100 100 100 100 100 100 100 100 100 100 100 100 100 100 96 87 75 68 71
11 10 10 10 10 17 28 23 36 88 84 95 100 99 100 100 100 100 99 100 100 100 99 100 100 100 100 100 100 100 100 100 100 100 100 99 93 86 75 77 81 77 73
14 16 20 35 51 79 88 92 82 87 89 88 100 100 100 100 100 100 100 100 100 100 100 99 100 100 100 100 100 100 100 100 96 96 89 86 84 84 82 77 69 59 51
36 88 91 100 100 92 99 98 88 85 89 78 91 98 100 100 98 95 94 97 100 100 99 99 100 100 100 100 99 98 94 86 88 91 88 81 78 74 62 54 41 29 19
82 96 100 90 84 96 100 100 91 86 94 94 95 100 100 98 98 100 97 96 98 98 96 95 92 92 91 92 94 90 84 78 76 75 72 64 56 47 35 21 10 7 6
100 100 100 100 98 94 92 97 99 100 100 100 100 100 98 95 94 91 94 93 90 86 84 83 81 77 74 72 72 72 71 67 60 53 46 33 18 10 7 6 6 6 6
100 100 100 100 100 100 100 100 100 100 100 100 96 94 97 99 93 86 82 80 76 75 75 76 76 75 70 68 66 61 52 40 26 15 10 8 7 6 6 6 7 8 9
100 100 100 100 100 100 100 100 100 100 100 99 97 92 91 91 88 86 85 84 82 78 73 68 62 52 42 30 20 12 8 8 8 8 8 7 8 8 9 9 11 12 15
100 100 100 100 100 100 100 100 100 100 99 96 90 87 90 89 83 78 71 62 47 35 23 15 12 10 10 9 10 10 10 10 9 9 9 9 10 12 13 14 18 23 27

GFSGL_500_rhum_090.txt.gz
RH
23 17 17 17 21 23 23 22 40 51 48 46 49 54 51 47 28 27 26 27 29 35 47 59 78 91 93 96 85 81 77 76 69 100 88 100 91 82 86 90 91 77 89
24 21 17 17 21 27 31 34 30 29 28 26 44 60 54 50 52 55 51 52 34 28 30 34 41 69 85 94 98 93 86 90 86 88 92 89 80 80 80 88 88 92 78
32 28 24 19 21 24 28 31 39 36 35 37 35 28 44 60 58 63 67 63 68 70 70 73 64 54 59 73 71 74 76 75 72 70 80 83 77 79 77 74 74 82 94
42 41 38 34 28 28 28 28 34 45 44 45 47 36 33 29 41 49 41 38 41 43 52 74 65 55 68 75 72 75 79 79 82 76 66 70 66 80 78 80 81 98 96
35 47 50 47 47 40 32 35 40 43 54 56 59 55 46 42 44 41 39 34 32 39 40 45 49 48 55 61 63 70 83 91 91 82 75 78 65 83 99 92 88 96 96
99 43 40 37 43 55 59 58 58 56 61 67 67 70 64 65 66 52 61 69 70 67 74 68 60 58 58 57 53 59 69 72 65 80 81 65 76 85 95 97 92 77 68
99 98 96 75 84 79 82 84 77 74 68 70 76 74 69 62 63 75 87 76 72 82 92 82 57 55 60 65 70 58 52 53 61 67 72 76 77 84 84 80 77 73 62
95 95 100 99 99 95 94 91 73 75 81 72 59 61 67 72 81 78 83 82 82 78 80 98 67 40 46 54 62 60 57 60 61 67 74 82 86 76 73 98 50 39 41
72 85 88 98 100 99 98 98 98 90 89 90 97 83 72 66 72 87 80 65 64 71 73 79 86 64 45 50 43 44 42 38 44 59 65 72 72 86 86 53 70 72 64
63 60 48 43 43 91 100 100 97 97 98 98 97 97 100 100 92 98 76 84 79 88 84 68 97 100 87 91 65 54 60 64 53 50 54 54 56 69 77 83 86 89 96
36 23 23 32 37 30 35 86 98 97 88 91 99 98 99 94 98 100 96 89 94 90 85 85 68 79 86 95 95 86 84 79 66 73 77 84 91 82 74 77 99 96 100
22 19 16 11 7 6 6 8 14 40 71 83 85 83 86 100 98 96 100 99 96 92 76 94 98 78 81 95 99 97 94 78 71 90 85 75 79 81 98 93 100 99 100
42 13 14 23 33 35 24 17 13 11 52 59 76 80 90 100 99 98 97 96 100 96 100 92 95 99 87 78 86 95 98 95 90 95 91 99 100 98 100 100 100 99 98
11 11 10 10 14 21 31 44 52 42 39 38 42 72 98 100 100 97 97 96 99 100 100 100 97 97 97 97 89 97 100 97 99 98 100 98 99 100 100 99 98 99 99
13 14 14 16 16 15 15 15 16 21 30 38 47 61 68 72 76 88 98 73 77 81 85 76 86 100 100 88 98 93 89 99 99 99 99 99 99 100 99 97 100 100 100
12 12 11 10 10 9 9 8 8 8 9 11 15 24 33 61 65 69 98 82 98 94 80 80 98 96 100 96 99 95 89 100 100 98 99 99 99 100 99 100 100 100 100
20 20 18 15 13 12 11 10 9 8 8 14 32 30 44 60 54 61 92 97 98 70 100 54 72 85 98 100 100 98 100 100 100 99 99 100 100 100 98 100 100 100 100
24 22 19 16 14 12 11 10 9 8 7 7 8 9 14 20 35 57 96 86 86 100 96 99 100 95 97 100 100 100 100 100 100 100 100 100 100 100 100 100 100 99 97
23 20 17 15 13 12 11 10 9 9 10 10 13 32 65 92 100 100 93 100 100 100 99 100 100 100 100 100 100 98 97 100 100 100 100 100 100 100 98 95 92 92 88
17 16 16 15 14 14 14 14 14 16 37 64 88 97 100 91 97 100 100 100 97 99 100 100 99 99 100 100 100 98 98 99 99 99 99 98 95 90 88 82 71 64 58
15 16 17 27 36 34 49 46 76 88 100 100 100 100 100 100 100 100 100 100 100 100 100 100 100 100 100 99 98 99 96 88 85 82 79 76 68 64 59 57 55 51 47
26 31 38 71 95 100 100 100 100 100 99 90 91 98 99 100 100 100 97 100 100 100 98 96 92 91 85 81 76 72 70 67 64 61 60 61 59 55 50 43 31 20 14
64 78 97 90 99 100 100 100 100 100 100 100 100 99 96 99 100 100 100 97 92 93 93 90 83 78 73 71 71 70 68 65 63 58 53 42 27 15 13 11 10 9 7
75 78 88 99 99 100 100 100 100 100 100 100 100 100 100 100 100 100 100 98 96 92 83 74 70 66 62 59 59 57 54 44 30 19 14 12 11 9 9 8 7 7 7
95 89 98 100 100 100 100 100 100 100 100 100 100 100 100 100 100 100 100 94 87 82 77 73 69 61 50 37 26 16 13 11 10 9 9 9 10 10 9 9 9 9 10
100 100 100 100 100 100 100 100 100 100 100 100 100 100 100 98 95 92 88 84 80 74 62 43 22 14 12 10 9 9 10 11 12 12 12 12 11 11 12 11 12 13 14

GFSGL_500_rhum_093.txt.gz
RH
28 30 24 18 17 17 21 22 19 17 21 27 41 46 39 35 36 23 20 19 20 29 34 46 76 87 95 100 96 87 87 93 87 98 93 97 93 90 96 92 90 81 81
28 28 28 21 18 19 20 26 28 26 22 26 33 37 44 50 52 53 43 42 37 32 27 26 30 38 44 65 86 100 95 91 85 86 90 93 95 94 100 88 93 91 97
30 27 28 25 20 19 19 24 28 32 33 31 30 29 28 27 36 54 55 56 57 59 54 41 40 42 47 47 55 72 87 99 89 77 87 100 100 100 100 96 100 100 94
47 46 42 31 27 23 21 22 26 28 30 42 39 38 41 40 31 27 52 54 52 51 51 60 65 72 83 78 68 65 67 62 62 60 52 77 84 98 100 100 98 94 88
92 73 87 69 44 29 30 29 28 28 29 32 41 48 51 51 45 44 34 34 33 34 34 35 36 38 39 40 40 41 41 44 50 50 51 57 69 72 78 90 79 91 82
92 93 92 97 82 66 65 55 50 44 40 40 47 47 50 59 62 60 54 47 46 47 48 48 45 43 43 48 43 46 41 37 34 33 32 34 43 59 62 82 86 68 71
92 97 98 98 97 97 96 97 96 97 96 95 84 67 65 66 73 71 63 52 54 59 61 75 72 69 75 82 76 56 51 48 43 41 32 39 41 48 54 60 78 94 90
96 90 85 95 99 98 98 98 98 97 98 97 96 97 96 96 91 84 70 54 48 54 67 81 83 94 99 98 94 79 50 37 35 40 38 39 45 50 58 58 68 76 84
95 90 90 87 87 96 97 98 98 98 98 100 98 97 95 97 96 94 91 75 73 66 61 65 68 75 92 98 89 77 75 81 78 52 39 30 31 42 42 43 52 54 56
76 78 94 88 87 84 89 96 92 96 98 98 99 97 97 99 98 98 97 95 87 75 76 66 68 56 70 100 95 91 70 73 81 71 82 81 60 73 83 90 78 72 62
60 62 64 62 65 68 66 50 45 44 58 90 96 98 98 97 97 98 98 99 98 98 96 92 84 84 82 89 97 99 98 98 94 75 64 67 81 75 71 68 67 90 98
26 34 42 33 29 28 31 28 24 20 17 13 24 28 51 83 82 92 95 99 97 96 99 98 96 98 100 96 100 95 97 95 99 96 89 85 74 70 90 90 74 81 90
16 10 16 36 41 25 18 22 21 8 9 13 21 26 23 21 32 55 68 85 98 100 98 94 100 98 83 86 98 100 97 96 97 96 98 100 98 98 98 100 100 95 99
12 7 8 28 52 58 38 9 7 7 8 9 10 10 14 16 17 14 15 20 32 40 57 93 94 93 75 97 94 94 99 96 94 99 98 99 95 100 100 99 100 99 99
12 11 9 9 11 11 12 12 12 12 11 10 9 9 8 8 8 7 7 8 10 16 17 19 30 52 94 99 97 100 100 85 87 90 100 100 100 99 99 99 100 99 99
17 15 14 13 12 12 11 11 11 11 10 10 10 10 9 9 8 8 7 6 6 8 10 18 32 47 63 89 98 98 92 93 100 100 100 99 99 97 99 97 100 100 100
18 16 15 15 14 14 13 12 12 14 14 13 12 11 9 9 8 8 7 7 7 7 8 10 18 36 39 68 72 75 100 99 99 99 99 90 96 100 100 100 100 100 100
19 19 21 23 24 24 24 23 21 18 17 15 13 12 11 10 9 9 8 8 10 12 19 49 97 97 95 94 100 99 100 100 100 100 100 100 100 100 100 100 100 100 100
36 37 34 30 27 25 22 20 18 17 16 15 14 13 12 12 12 12 12 21 54 86 94 99 100 100 100 100 100 100 100 100 100 100 99 100 100 100 99 100 100 98 93
42 40 38 36 32 28 23 19 16 13 12 11 12 14 16 25 40 48 92 98 100 100 100 100 100 100 100 100 100 100 100 100 100 100 100 99 99 98 98 90 78 68 60
46 43 34 27 22 17 15 15 21 20 25 46 76 84 68 68 100 100 100 99 100 97 100 100 100 100 99 100 100 100 100 99 95 88 81 76 68 65 66 63 57 53 47
23 20 20 26 30 33 31 28 29 61 76 75 97 100 100 100 100 100 100 100 100 100 100 100 100 100 100 100 99 96 90 82 77 75 72 64 56 51 49 45 38 29 20
22 44 49 47 50 54 55 59 63 80 81 87 96 100 100 100 100 100 100 100 100 100 100 100 100 100 100 100 98 93 86 80 74 70 62 56 50 41 29 20 16 13 11
41 52 58 68 77 76 80 83 78 81 89 100 100 99 100 100 100 100 100 100 100 100 100 100 100 100 99 96 89 81 73 68 62 54 44 30 18 13 10 9 9 9 9
93 92 92 90 87 90 98 100 100 100 100 100 100 100 100 100 100 100 100 100 100 100 100 98 96 94 89 84 77 68 54 28 16 13 11 10 9 10 11 11 12 11 10
96 98 98 100 98 98 100 100 100 100 100 100 100 100 100 100 100 100 100 100 100 98 93 86 80 72 58 39 20 13 11 10 10 11 13 14 14 14 14 13 12 12 13

GFSGL_500_rhum_096.txt.gz
RH
49 22 22 24 25 19 17 17 22 18 16 22 26 24 27 32 27 24 18 17 19 30 34 34 33 47 64 81 84 80 83 90 86 99 97 97 93 94 96 96 98 96 96
55 34 22 24 27 24 18 16 18 23 21 20 18 25 30 28 30 40 50 50 39 37 32 28 24 21 25 31 51 68 77 86 77 91 98 96 98 100 96 94 93 89 92
71 46 26 26 26 28 22 18 16 16 19 23 25 23 22 23 26 25 25 27 40 47 50 46 44 45 37 34 34 39 42 46 48 52 83 99 99 100 99 96 93 94 96
95 64 58 39 33 29 25 22 20 18 18 19 21 23 28 32 31 29 28 24 23 32 45 50 51 49 50 51 53 56 56 56 58 57 55 62 60 66 68 72 81 93 90
96 96 96 90 78 56 38 32 30 25 24 24 24 24 26 30 33 34 34 35 34 33 26 24 28 34 34 36 36 39 37 37 36 31 29 32 38 44 51 62 58 78 80
96 97 97 97 87 70 93 73 62 50 42 38 39 37 36 36 43 42 37 37 38 40 45 44 40 39 38 39 38 38 40 42 43 41 41 40 41 44 46 49 48 44 44
98 98 97 94 100 97 96 94 86 73 76 79 81 78 80 74 65 55 51 53 54 50 51 52 50 53 54 54 67 69 62 62 65 71 64 59 51 48 43 40 49 60 57
88 95 92 89 87 94 99 98 96 97 96 97 98 97 97 98 91 90 88 87 89 90 78 61 54 56 59 63 70 72 77 86 83 80 70 60 70 72 80 69 46 43 40
91 90 95 93 92 85 84 90 94 98 99 98 99 98 97 98 96 99 98 93 86 93 99 99 95 86 74 72 63 60 62 74 67 66 68 80 84 68 73 94 81 81 78
92 93 100 100 100 89 94 99 93 85 80 84 93 96 98 97 99 99 98 99 98 99 99 98 93 96 99 98 94 89 82 92 97 88 77 72 76 75 77 94 97 100 100
100 100 100 94 89 91 95 97 97 90 81 76 71 79 81 82 91 98 98 98 94 97 99 99 97 95 100 98 98 98 99 98 98 99 96 99 96 88 82 88 92 100 100
99 90 90 85 62 46 50 54 59 54 41 35 36 32 27 24 17 14 25 52 76 85 89 94 89 96 96 98 98 98 99 99 99 100 99 99 98 98 97 99 99 99 100
98 97 94 75 56 39 19 16 15 29 42 40 32 39 42 15 9 9 8 8 9 10 12 11 14 19 29 37 74 88 67 90 100 97 96 97 100 100 97 97 98 99 98
96 91 81 70 47 22 10 9 9 11 14 13 13 12 11 11 11 10 10 9 8 8 8 7 7 7 6 6 7 18 61 74 26 28 50 81 91 98 99 98 98 100 99
75 72 52 22 18 16 14 14 14 14 13 12 12 12 11 11 11 10 10 10 9 9 9 8 8 7 7 6 6 6 5 5 12 15 31 43 91 95 92 99 95 95 98
28 26 21 20 18 18 16 16 16 15 15 14 14 13 13 13 13 13 12 12 12 11 10 9 9 8 8 7 7 7 6 6 6 9 20 46 56 77 96 92 100 100 100
30 31 28 26 24 22 20 18 18 16 16 18 19 19 20 19 18 17 16 15 15 14 13 12 12 11 10 9 8 9 10 9 12 45 71 80 98 100 100 100 100 100 100
47 43 39 33 28 24 22 20 18 19 21 22 24 23 22 21 20 20 19 18 17 16 15 14 13 13 13 15 23 38 57 67 76 87 92 100 100 100 100 100 100 100 100
45 42 38 36 33 28 25 24 26 29 30 28 26 26 26 26 24 22 19 15 12 12 17 29 35 35 44 61 88 100 100 100 100 100 100 100 100 100 100 100 100 100 100
43 45 46 45 42 40 37 35 34 33 32 33 32 28 24 18 15 13 13 19 50 74 68 100 97 100 100 100 100 98 99 100 99 98 99 100 100 100 100 100 98 91 81
48 45 46 47 47 46 43 40 37 30 27 20 18 18 22 20 19 28 40 57 80 91 100 100 100 100 100 100 100 100 100 100 100 100 100 100 100 100 99 92 83 76 70
42 38 35 32 26 21 17 14 14 17 24 36 43 42 39 29 42 57 55 64 78 94 100 100 100 100 100 100 100 100 100 99 100 100 99 99 100 96 87 78 72 65 54
23 20 17 16 15 20 20 20 24 34 45 51 62 66 63 60 65 68 77 83 82 89 97 100 99 99 100 100 100 100 100 100 100 100 96 94 92 84 74 66 54 39 25
27 40 55 57 59 62 65 67 75 77 79 87 80 77 78 87 88 86 90 94 100 100 100 100 100 100 100 100 100 100 100 100 96 89 84 78 69 51 32 18 14 11 10
68 42 27 26 27 32 52 78 99 100 100 98 84 89 96 97 97 99 100 100 100 100 100 100 100 100 100 99 97 94 90 86 78 66 45 28 18 15 12 12 12 12 12
34 31 30 30 29 30 37 50 69 97 100 100 100 100 100 100 100 100 100 100 100 100 100 97 94 91 89 83 77 73 62 42 22 14 12 13 14 15 15 14 13 13 12

GFSGL_500_rhum_099.txt.gz
RH
50 24 20 20 19 19 19 17 16 16 16 13 14 14 18 22 24 20 20 22 33 49 64 66 70 69 76 75 67 70 80 86 90 98 95 99 94 99 100 100 100 100 99
45 39 40 22 20 21 21 19 17 16 17 18 18 15 16 18 22 25 26 25 31 28 23 24 28 36 34 25 31 36 41 38 40 59 76 82 91 97 99 97 100 93 91
61 65 60 51 29 22 22 20 20 18 17 17 18 20 24 23 20 18 19 23 26 31 34 38 41 41 41 42 40 36 34 33 34 38 43 46 50 57 59 65 76 88 95
80 80 77 72 45 25 28 26 26 23 20 19 18 19 20 21 22 24 26 26 19 15 16 19 20 28 37 42 39 38 48 45 46 46 50 55 57 60 54 54 58 67 59
92 96 96 96 63 54 36 31 30 28 25 24 23 22 23 24 25 26 27 30 31 33 34 32 33 36 32 27 26 29 28 26 27 23 24 27 30 36 45 53 45 51 49
90 95 97 98 94 87 84 72 62 62 51 47 41 35 34 33 33 42 49 42 36 35 37 41 44 46 46 44 44 45 44 44 45 50 56 55 54 60 71 67 60 50 50
94 94 95 98 97 99 97 96 88 80 87 94 93 82 73 78 82 88 93 96 89 79 59 58 68 73 68 56 48 47 47 48 46 49 45 57 55 64 68 65 72 73 66
94 99 98 93 95 100 96 99 94 92 97 92 92 94 95 80 87 87 85 84 84 92 97 99 94 100 100 94 91 82 74 61 53 53 54 52 55 57 65 70 67 70 78
98 97 100 85 87 93 95 94 96 100 98 96 87 82 79 77 88 88 96 86 83 96 96 92 90 98 100 100 98 98 100 100 93 98 99 93 90 85 82 83 80 79 68
95 95 100 87 84 84 83 90 95 94 93 98 96 95 93 83 83 80 95 97 95 94 100 99 96 96 100 100 99 98 92 100 99 98 98 95 98 96 100 100 100 100 100
97 98 100 97 94 93 96 98 92 91 90 86 79 70 66 64 78 78 70 61 75 86 95 95 96 99 99 98 98 98 96 97 91 96 93 97 100 99 100 99 98 95 99
98 100 98 97 100 98 94 78 61 59 62 71 70 72 70 65 54 39 31 33 33 36 31 35 35 32 27 24 18 39 29 69 55 64 72 82 98 90 96 97 95 94 97
97 98 97 98 98 97 98 97 93 93 75 58 24 15 25 28 36 40 35 21 13 11 10 9 8 8 8 7 7 7 7 6 6 6 6 7 6 50 76 47 24 32 24
98 98 96 98 97 94 94 95 94 80 58 36 22 12 10 10 10 11 11 11 11 11 11 10 10 10 9 9 9 8 8 8 7 7 7 6 6 6 6 5 5 5 7
89 93 90 94 93 90 88 85 52 23 18 16 14 13 13 13 12 12 12 12 12 12 12 12 12 12 12 12 12 11 11 10 10 9 9 9 8 7 7 7 6 6 7
69 60 49 39 33 30 29 26 24 22 21 21 20 18 17 17 16 16 15 15 15 14 15 16 16 17 17 17 17 16 16 16 15 15 14 12 12 11 9 9 10 11 29
45 50 43 36 33 30 29 28 27 27 25 24 23 21 21 20 22 24 25 24 23 24 24 23 22 20 20 19 17 15 14 13 12 12 12 12 14 16 16 27 46 70 90
62 60 54 51 48 46 43 40 37 34 32 30 29 27 25 24 26 28 29 28 27 26 24 21 19 18 16 12 11 13 21 41 46 85 87 90 100 100 100 100 100 100 100
64 59 53 47 43 38 34 32 30 30 29 32 40 42 42 41 40 38 35 31 27 24 22 18 15 13 13 15 47 59 88 100 100 100 100 100 100 100 100 100 100 100 100
40 38 36 35 35 36 35 34 36 41 40 39 39 38 38 35 31 27 22 18 18 19 21 20 19 25 29 46 46 51 84 100 100 100 100 100 100 100 100 100 100 100 100
50 51 52 50 52 52 51 48 44 43 40 35 30 26 20 16 14 14 19 26 37 44 39 32 39 42 45 46 55 68 82 91 97 100 100 96 98 98 99 100 100 100 99
56 54 52 50 49 45 41 36 30 25 21 18 16 14 16 18 22 32 43 49 61 63 62 54 57 59 74 77 76 78 85 94 97 99 100 100 99 99 100 99 97 95 89
50 44 40 38 35 32 28 26 23 22 29 39 47 54 62 66 69 74 76 81 76 67 75 83 79 74 75 74 83 91 94 96 98 100 100 99 99 98 94 89 83 76 68
41 41 43 46 48 48 47 50 66 65 47 36 34 36 39 48 82 97 100 100 92 86 82 85 88 91 92 93 93 95 95 95 93 92 90 87 85 82 78 65 56 40 28
58 58 53 51 53 60 63 53 52 42 38 34 34 31 34 44 58 81 91 100 100 98 95 96 95 95 94 93 94 94 93 92 88 85 80 72 61 46 34 23 15 14 16
30 30 30 30 30 30 31 31 30 31 33 33 36 39 50 63 75 86 90 97 100 100 100 99 99 99 98 95 92 88 84 77 65 50 33 24 18 17 17 17 17 16 15

GFSGL_500_rhum_105.txt.gz
RH
70 80 98 97 82 68 71 27 26 19 19 16 16 14 16 19 18 18 18 26 48 83 94 97 95 95 95 99 98 94 94 96 96 96 86 72 67 79 82 82 74 70 66
98 99 97 87 81 69 76 31 26 22 24 21 17 19 13 13 19 20 24 22 26 26 27 45 55 52 73 95 93 84 72 56 35 28 29 22 23 33 39 32 35 37 40
99 99 95 94 78 69 73 52 27 24 24 27 20 18 19 18 18 19 19 21 21 23 26 27 28 34 34 34 32 31 32 32 33 34 38 37 35 34 36 44 50 52 50
94 93 92 96 85 77 82 45 59 38 23 23 26 20 18 21 22 22 23 23 24 25 25 24 23 22 23 28 37 43 44 42 40 38 41 34 30 40 30 30 26 27 27
98 97 95 100 92 85 87 50 68 74 51 25 23 26 21 18 19 18 19 20 23 25 27 28 31 34 36 37 37 35 34 34 35 36 38 37 40 40 38 40 35 41 42
99 98 100 84 91 95 100 70 77 75 68 36 23 21 22 23 21 21 22 24 27 31 33 34 40 50 60 51 48 49 48 51 55 60 66 70 73 66 62 58 60 61 64
99 96 100 95 96 97 99 98 93 90 98 86 35 25 23 28 27 30 39 40 48 57 67 74 82 88 91 100 100 95 84 72 68 72 73 81 84 87 84 93 99 92 89
99 99 99 94 97 96 96 97 97 96 97 97 87 44 37 43 62 87 86 94 100 84 89 92 88 81 77 80 83 86 85 84 80 90 87 80 84 100 100 100 98 98 99
100 98 94 87 90 98 97 97 97 96 97 98 98 95 80 94 87 92 97 94 87 87 90 83 82 84 81 78 74 77 74 91 92 94 99 86 92 86 100 100 99 97 99
95 100 96 100 85 99 98 97 96 97 96 98 97 100 98 98 100 98 96 93 95 94 98 95 83 73 80 85 80 80 77 58 54 73 95 94 98 100 98 100 100 100 98
90 97 96 94 94 95 96 97 98 98 98 95 98 99 98 93 97 97 96 96 87 81 90 79 74 76 66 65 61 61 79 45 47 83 94 26 23 84 94 76 40 51 66
98 100 99 97 97 100 95 93 97 97 97 92 94 99 100 100 98 98 98 98 95 94 91 86 74 62 54 51 50 45 39 32 29 26 18 10 8 9 20 9 8 8 7
97 97 98 97 97 97 98 99 98 99 96 100 97 96 96 100 100 98 96 96 93 76 66 66 65 52 39 28 22 19 16 12 10 9 9 9 8 9 9 9 9 10 10
98 99 99 100 98 98 98 100 100 98 98 97 96 98 98 96 98 99 87 73 76 86 69 48 41 36 25 18 16 13 11 10 11 11 12 12 12 12 12 12 13 13 14
99 99 97 97 97 97 98 97 97 97 98 96 96 98 97 98 98 97 96 99 85 42 28 26 19 15 14 13 13 14 15 16 16 16 16 16 16 17 19 20 20 18 17
78 80 83 77 80 88 87 91 93 95 94 97 98 99 99 99 99 98 92 64 39 29 21 21 19 19 19 21 22 23 22 21 20 19 18 18 20 23 21 19 15 12 10
70 69 67 69 64 60 56 54 53 52 53 52 52 51 53 51 51 44 35 28 25 25 27 30 29 26 23 21 19 20 19 20 22 23 24 22 20 16 13 10 10 11 12
82 77 73 71 67 63 59 54 50 48 45 45 42 41 38 36 35 35 37 37 36 34 32 29 25 21 18 17 17 18 19 19 20 23 23 17 13 12 13 18 23 24 27
74 91 94 94 90 84 79 72 66 63 61 61 59 57 54 50 47 44 41 37 33 28 26 24 23 23 22 22 23 25 29 28 23 18 14 13 21 28 33 39 41 38 37
61 56 58 74 77 72 71 70 63 64 66 62 59 55 53 51 46 40 36 32 31 28 28 28 29 33 33 33 32 29 25 19 16 16 19 34 42 50 48 49 52 57 54
48 50 51 53 51 50 53 56 55 54 52 49 44 37 34 35 32 31 30 29 28 31 39 41 40 38 35 29 27 23 20 22 32 40 56 65 70 74 67 61 63 67 68
34 37 45 49 50 46 45 44 44 44 40 39 40 39 36 35 40 45 48 48 47 46 44 41 37 31 27 24 27 36 40 46 55 48 43 53 67 74 78 78 84 85 84
56 55 56 55 54 54 56 56 56 57 58 58 58 59 59 60 61 58 52 47 44 41 36 34 35 39 43 47 46 41 37 36 41 46 58 65 77 86 91 91 90 91 90
50 51 51 52 53 55 56 56 57 57 58 57 56 55 53 52 50 49 47 46 46 51 59 65 66 63 61 56 50 50 45 47 53 67 78 85 89 88 86 88 86 83 76
30 29 29 28 28 29 29 31 32 30 30 29 30 30 31 34 36 37 39 40 41 40 38 35 34 36 37 44 51 57 64 74 79 90 90 87 86 83 81 80 76 72 54
20 23 24 25 25 25 24 22 21 21 20 19 19 19 19 20 21 23 25 27 29 32 35 40 45 52 59 69 75 81 88 93 97 93 91 88 85 79 64 38 22 22 24

GFSGL_500_rhum_108.txt.gz
RH
8 24 19 29 36 41 57 86 80 63 26 23 20 17 15 13 19 19 27 32 46 57 71 98 97 96 96 91 99 96 91 94 94 100 98 96 97 95 68 52 62 73 62
24 30 32 46 54 55 74 97 83 63 27 26 22 23 17 14 15 20 19 19 19 21 25 50 82 95 94 86 87 98 96 97 96 98 86 55 34 29 34 29 34 30 34
27 44 49 58 64 84 94 94 95 81 31 28 30 31 22 17 16 16 17 18 19 22 24 28 28 30 28 26 32 53 62 68 60 46 30 31 36 37 37 38 40 41 42
40 56 64 81 87 83 93 95 99 92 54 28 28 30 28 22 18 20 22 21 18 16 16 18 20 23 26 28 32 34 37 38 39 41 40 37 34 30 28 29 27 26 26
65 77 85 97 94 97 96 96 98 100 70 61 48 32 26 26 24 18 18 22 23 23 23 23 24 24 24 23 22 23 21 21 21 24 27 31 33 33 34 36 35 41 44
66 88 91 78 85 90 96 97 98 98 95 56 78 80 47 28 27 26 19 19 19 20 22 23 25 26 28 31 33 32 31 31 31 32 35 38 45 50 59 67 72 80 94
94 95 89 90 98 97 95 97 97 98 98 69 81 86 80 42 31 34 28 22 20 20 23 25 28 35 40 52 73 78 79 77 81 80 80 77 83 86 81 88 94 94 94
100 100 100 100 98 96 96 96 96 96 100 86 76 84 100 98 97 50 34 28 26 25 31 38 49 68 81 86 85 84 82 80 83 82 80 94 95 98 98 100 98 99 98
100 100 100 99 97 98 97 97 96 97 98 94 94 97 98 98 97 81 47 38 34 51 75 83 95 96 97 99 91 88 89 77 75 76 80 95 91 68 73 86 98 99 99
100 99 97 100 88 81 85 96 92 94 96 97 97 97 98 98 97 97 90 46 65 76 94 96 95 95 97 99 93 88 70 65 69 94 75 78 80 60 49 91 98 100 68
93 98 86 99 97 100 88 97 100 87 98 94 96 96 97 98 97 97 98 97 97 98 98 97 97 98 97 98 98 81 96 98 74 69 66 71 87 59 39 32 65 100 96
98 100 100 99 100 97 94 93 99 92 96 97 95 96 97 98 98 93 98 98 97 94 99 98 98 99 95 97 98 98 96 95 66 53 45 39 33 26 21 15 12 10 9
96 97 100 99 100 100 97 98 98 77 98 98 98 98 98 98 97 100 99 98 98 99 97 98 97 100 94 97 96 76 65 57 38 29 25 21 16 15 12 11 11 12 12
98 99 98 98 99 99 98 99 98 98 100 100 99 96 98 98 97 98 98 100 98 98 98 94 97 97 98 86 73 75 58 44 34 26 21 15 14 13 13 15 16 18 18
69 84 93 96 97 99 98 98 98 98 99 99 98 98 99 99 98 98 98 99 98 98 97 97 97 98 93 90 78 44 33 26 20 17 17 17 20 22 22 22 21 20 20
41 43 58 69 79 90 95 96 98 98 98 98 98 98 98 98 98 98 97 97 98 99 99 98 97 96 80 61 50 39 30 26 24 24 24 22 20 19 17 15 14 16 16
62 87 75 62 63 64 64 80 91 95 94 93 96 98 98 98 99 99 98 99 99 100 98 98 88 66 53 37 29 29 29 29 28 27 24 20 20 17 16 16 16 18 20
68 75 78 75 68 75 68 68 68 69 68 63 61 63 64 64 61 56 55 51 58 55 48 41 36 33 34 35 36 36 34 33 29 24 22 20 20 21 21 24 24 24 20
50 47 48 54 59 74 81 89 86 82 77 70 66 60 56 54 51 48 47 46 46 46 46 45 45 43 42 40 36 31 28 26 23 21 19 21 25 27 28 29 26 21 18
22 23 26 34 46 52 59 65 81 93 98 97 91 90 86 79 73 70 66 63 60 56 54 51 49 45 41 37 32 27 22 21 25 31 33 34 34 32 29 26 25 31 46
22 21 25 29 29 30 32 46 56 57 65 71 64 60 67 64 60 61 65 63 59 53 48 44 40 36 34 33 33 36 38 37 38 39 40 36 29 27 31 40 43 40 41
39 37 36 38 34 32 32 33 33 36 42 48 53 55 53 53 56 54 50 46 42 41 41 41 38 37 39 39 42 43 42 42 39 35 33 38 47 52 47 46 48 46 49
29 32 35 38 40 42 46 48 47 44 43 44 44 44 44 44 45 46 45 45 44 45 45 45 45 45 46 46 46 45 43 40 43 53 60 60 56 53 50 49 52 57 59
25 24 24 25 26 28 30 32 38 42 44 46 46 47 49 50 50 49 49 48 48 48 47 45 44 42 41 41 42 43 44 44 42 39 38 39 42 52 57 62 68 67 75
13 14 16 19 22 26 28 29 30 31 31 30 30 30 29 30 30 30 30 29 27 25 24 23 22 22 22 24 25 27 29 32 37 41 48 56 63 70 74 72 79 81 72
9 9 10 10 11 11 14 18 23 26 28 29 29 28 27 27 25 24 22 21 20 18 17 16 16 15 16 16 18 22 28 37 48 56 64 71 76 80 82 82 78 68 43

GFSGL_500_rhum_111.txt.gz
RH
14 17 17 14 26 46 59 28 20 40 54 97 73 31 25 20 16 16 22 34 42 56 61 73 77 84 100 96 96 95 94 99 99 97 97 96 96 94 97 98 98 96 77
42 43 42 60 55 59 66 52 27 50 78 95 75 33 28 21 18 18 17 20 18 20 25 35 77 95 98 100 95 100 95 92 98 90 97 96 98 95 95 76 41 34 38
42 58 61 53 63 75 88 43 29 56 78 100 72 34 33 25 24 20 17 16 19 18 18 17 18 41 76 91 95 88 69 88 97 98 97 96 71 45 31 28 32 33 35
34 41 34 48 65 84 83 52 42 62 86 98 86 42 32 31 29 26 21 18 15 16 18 20 18 17 18 21 22 24 28 39 71 64 54 40 31 36 37 40 41 37 36
46 38 29 36 40 58 69 62 73 80 94 97 96 81 35 32 30 27 29 21 20 19 19 20 20 18 18 18 18 18 19 23 30 32 36 36 37 34 27 24 28 28 31
52 48 39 52 53 53 61 88 80 72 97 94 98 83 61 69 43 28 26 28 21 20 22 23 24 24 25 26 26 24 22 22 22 23 22 24 26 26 30 34 38 43 51
63 67 55 56 65 85 92 84 93 93 96 83 98 98 70 67 88 75 42 25 26 25 20 21 23 24 23 24 26 27 29 34 39 46 48 49 52 55 53 59 67 75 82
89 76 79 68 66 78 88 96 93 95 92 95 97 98 100 73 78 92 69 70 61 62 31 23 22 22 24 25 28 34 45 53 75 83 88 90 94 92 88 86 90 94 88
98 100 98 98 94 96 83 87 90 99 97 96 97 94 98 97 71 71 82 100 100 99 74 32 26 24 25 29 40 60 81 87 92 94 88 83 77 77 79 78 100 100 91
99 99 98 97 91 86 94 97 82 83 95 90 95 95 97 99 90 84 94 97 96 99 99 48 34 34 45 74 90 95 90 85 83 85 83 81 76 80 100 98 100 97 100
97 98 99 98 98 97 92 75 83 97 80 87 90 96 98 98 98 97 97 95 98 97 99 92 53 67 94 96 96 97 96 91 100 93 100 92 100 97 83 72 70 58 69
97 100 98 99 100 98 99 99 98 92 100 97 100 99 92 88 94 94 97 97 98 98 100 100 87 90 95 99 99 98 99 99 98 99 97 90 99 98 94 81 58 36 26
94 100 98 97 98 99 99 98 98 98 99 100 98 98 90 99 100 99 100 98 100 95 92 92 98 100 100 99 100 99 98 90 98 98 98 97 96 92 68 48 46 36 25
48 75 89 98 99 99 100 99 99 100 98 99 100 99 98 100 98 98 100 98 98 98 99 97 98 97 98 96 98 98 100 98 98 98 97 96 97 94 60 41 35 31 26
17 18 29 55 82 97 98 99 100 98 99 99 99 99 99 99 100 99 99 99 99 97 97 99 98 98 99 97 98 98 98 98 97 99 100 92 73 51 39 28 28 29 28
12 13 11 12 15 32 55 83 95 96 99 98 99 100 98 98 99 99 99 99 100 99 98 99 99 98 98 97 98 99 98 100 98 90 34 49 47 38 31 29 29 31 33
27 31 38 34 28 26 26 35 53 60 79 91 94 97 98 99 99 100 98 98 100 99 99 100 100 100 100 99 98 98 99 99 99 81 40 38 31 32 34 36 36 35 29
34 34 41 44 44 46 53 53 60 63 59 57 63 73 79 89 97 98 100 98 99 96 98 99 99 100 100 98 93 82 85 83 59 39 35 36 37 38 37 35 31 27 21
35 35 33 30 26 30 35 39 43 46 53 72 80 89 85 82 75 71 81 92 90 83 77 68 63 77 86 88 77 61 52 47 45 44 44 44 42 40 36 30 24 23 23
20 16 17 22 25 25 23 22 21 20 23 40 50 62 73 88 93 92 88 84 81 77 69 65 66 65 65 65 63 60 57 55 54 52 50 48 44 39 30 26 27 29 31
24 22 20 19 16 16 17 17 18 20 19 19 20 22 31 49 63 72 81 78 73 74 76 74 74 75 75 74 71 68 64 58 51 44 39 33 28 28 26 30 37 41 39
26 27 27 26 24 23 22 23 27 26 26 25 22 20 24 26 27 32 41 49 55 58 60 61 62 63 60 57 55 50 45 40 38 37 35 35 33 34 39 41 38 37 39
22 22 22 23 25 25 25 24 25 28 31 34 37 39 41 41 41 39 36 37 38 38 37 37 38 39 39 39 39 40 38 38 38 40 42 42 38 35 33 31 28 27 28
19 19 18 19 20 21 21 21 22 23 24 24 25 26 27 29 32 36 39 42 44 45 46 46 47 48 47 45 44 43 40 37 34 30 26 23 22 22 21 22 23 25 28
12 12 11 11 11 11 12 11 11 12 12 14 18 22 25 28 29 30 31 31 30 30 30 30 31 31 30 29 28 27 26 24 22 21 20 19 17 16 16 16 18 23 34
8 7 7 7 7 7 8 8 8 9 9 10 11 12 12 13 16 20 24 27 29 29 30 29 27 26 25 23 21 19 17 16 15 14 13 14 14 16 22 31 41 47 47

GFSGL_500_rhum_114.txt.gz
RH
35 60 47 29 28 23 37 36 32 54 58 34 34 45 67 72 52 22 18 16 15 38 84 77 73 67 78 96 86 97 97 97 97 94 97 94 95 96 95 96 96 95 97
73 32 25 35 40 61 59 58 56 57 66 43 33 57 81 80 52 23 20 18 15 20 40 61 61 69 62 74 98 94 94 97 96 99 97 98 98 98 97 92 95 99 98
20 16 16 24 35 69 83 84 87 85 97 91 38 64 97 86 56 25 21 19 18 17 21 23 21 28 56 89 90 90 97 97 97 97 97 98 97 98 98 95 98 92 64
18 17 30 47 52 59 80 92 97 97 96 77 51 76 94 94 52 26 22 22 20 19 18 22 23 23 22 28 62 84 90 99 96 90 94 97 97 98 97 94 88 46 34
14 13 34 36 35 48 66 78 91 99 97 77 59 81 94 100 50 30 25 25 25 21 20 20 18 17 18 21 22 25 27 28 26 27 40 75 74 72 59 44 36 42 45
15 16 15 21 36 38 38 61 80 99 95 64 73 87 97 100 56 32 29 28 28 29 25 22 23 21 19 19 19 20 20 20 20 20 24 28 35 36 35 38 36 28 26
13 16 18 28 31 37 38 48 65 77 91 83 76 81 88 98 90 46 27 25 28 27 26 26 22 22 23 23 25 26 25 26 26 28 28 28 28 29 28 28 31 34 36
22 20 41 48 61 57 50 54 50 72 85 97 94 91 93 98 98 72 43 35 43 54 40 27 27 30 24 21 22 25 25 25 27 29 31 34 39 55 73 83 89 91 91
51 85 98 91 80 74 90 94 74 100 78 93 84 97 98 99 100 98 95 60 51 59 76 76 50 94 96 48 26 23 24 24 26 29 34 44 62 84 95 96 96 92 87
79 96 98 98 100 97 97 84 99 99 79 89 89 93 96 96 98 95 97 96 91 64 70 85 95 99 99 98 94 35 25 25 27 34 51 91 98 98 100 98 98 97 90
90 94 98 99 97 97 98 99 96 89 97 98 97 72 88 95 100 100 99 98 98 95 92 85 97 98 98 99 98 85 34 32 51 78 100 98 98 100 99 99 99 99 95
62 75 82 91 89 98 98 98 99 100 99 100 98 91 91 98 93 98 97 98 96 90 98 96 98 98 99 98 98 97 66 67 79 93 96 98 100 99 99 100 100 100 100
41 52 51 74 84 75 91 97 98 95 97 98 99 99 90 97 97 86 73 95 99 96 98 99 99 99 99 98 99 100 85 80 94 100 99 100 96 100 99 97 98 98 99
18 18 20 27 32 46 94 98 94 96 99 95 98 99 98 98 99 100 99 98 100 98 96 97 97 97 99 97 99 100 100 100 100 99 99 99 99 84 96 99 100 100 99
18 15 11 12 13 14 13 18 55 95 98 100 100 100 100 99 99 99 99 99 99 98 98 99 99 97 97 100 100 99 98 99 96 100 98 99 98 98 99 98 97 98 100
16 16 20 22 16 16 18 18 17 16 24 69 90 95 99 100 100 100 100 99 99 100 100 99 99 100 98 100 100 99 100 100 98 95 100 100 99 99 99 98 99 99 88
20 22 23 21 21 21 19 19 19 19 26 28 32 48 67 78 88 95 100 99 100 100 100 100 99 98 99 99 100 100 100 99 100 100 100 100 99 99 100 100 100 100 96
49 37 28 24 24 24 22 24 26 26 27 32 38 46 49 55 61 64 79 90 91 96 98 99 99 100 100 99 99 100 100 100 99 99 98 99 100 100 98 97 96 94 84
58 51 51 49 42 33 28 25 28 30 26 25 29 34 38 41 50 73 80 87 86 92 83 84 94 97 97 98 98 98 95 97 99 99 100 100 100 100 100 98 96 91 81
39 43 45 40 36 36 34 27 24 25 25 26 27 25 23 22 21 23 36 53 66 87 98 100 99 98 97 95 92 94 94 88 86 83 81 80 78 76 72 68 65 60 57
33 32 30 30 30 30 32 30 24 22 21 19 19 17 17 20 22 20 19 19 20 23 39 59 75 90 99 100 99 95 94 94 90 85 81 78 74 69 63 58 53 46 40
24 25 27 27 27 28 28 27 27 26 25 23 22 21 20 18 18 16 16 17 16 17 18 22 26 31 38 45 51 54 54 54 54 53 51 49 46 43 40 37 36 34 34
21 21 21 21 22 22 21 21 21 20 20 20 21 22 23 24 25 26 28 30 31 31 31 33 34 34 32 29 30 32 34 35 36 36 35 34 35 35 34 33 35 36 35
16 18 18 18 17 17 16 16 16 15 15 16 16 17 19 21 22 22 23 25 26 26 29 33 35 38 40 41 42 42 41 41 41 40 39 39 38 37 35 33 30 26 24
9 9 9 9 8 9 9 9 10 9 9 9 10 12 12 13 16 17 18 19 21 23 26 28 28 28 28 28 29 30 31 31 31 30 30 29 28 27 26 25 24 21 19
13 15 16 15 14 14 13 12 12 11 10 9 9 8 8 9 10 10 11 12 13 13 14 14 16 18 21 24 27 28 29 29 28 29 26 24 21 20 18 16 14 13 13

GFSGL_500_rhum_117.txt.gz
RH
51 57 56 52 46 37 26 29 39 54 69 75 65 60 38 32 46 34 36 51 40 20 14 14 22 37 74 76 94 94 97 96 97 97 93 93 97 97 98 97 97 98 98
53 45 40 42 42 36 47 53 47 57 67 81 86 77 53 40 46 43 37 52 43 22 16 14 18 26 47 72 84 86 93 97 96 96 95 97 96 97 98 97 98 98 97
59 54 54 55 56 66 57 30 46 61 79 88 94 95 84 70 49 46 46 60 49 23 18 15 17 20 26 51 75 66 96 96 97 98 98 96 95 97 97 98 98 97 98
42 46 46 53 54 34 28 27 35 59 80 94 96 94 95 96 77 63 74 71 53 26 20 18 16 18 19 19 25 62 92 96 95 96 98 98 97 98 97 97 98 98 96
53 24 18 18 17 23 42 57 67 74 78 83 89 91 97 96 93 73 90 87 59 32 22 22 19 17 16 18 20 23 39 86 96 98 97 98 97 97 97 99 97 98 96
14 18 18 19 19 18 29 58 70 71 69 67 66 87 99 97 69 60 89 91 69 40 24 24 22 19 20 18 20 19 19 20 23 27 32 32 31 38 55 84 84 78 74
9 10 9 11 13 14 36 44 41 54 58 48 58 97 100 76 76 77 72 98 87 45 25 23 26 27 21 20 21 23 23 23 23 21 21 23 24 25 25 28 35 36 35
14 11 12 13 23 24 23 32 45 42 43 48 92 76 94 90 82 75 77 83 96 58 34 26 23 25 27 27 22 20 21 22 24 25 27 28 29 29 30 32 35 38 43
39 30 23 13 16 20 31 38 39 45 46 99 95 72 97 82 95 76 82 95 95 95 70 42 36 28 24 26 29 34 37 27 25 25 25 28 28 28 30 33 37 42 51
53 53 65 49 34 79 92 86 71 71 90 76 77 71 76 100 90 95 94 93 100 98 98 85 55 64 76 69 38 42 87 92 92 84 42 27 27 29 29 33 39 60 88
62 66 85 87 97 88 65 76 78 92 96 97 99 97 97 98 98 98 100 100 95 98 99 97 99 95 84 87 82 81 88 98 99 99 99 91 32 28 32 38 66 99 100
32 43 42 51 63 77 94 97 99 97 100 99 98 98 93 100 97 98 99 94 88 93 90 84 99 98 98 100 94 94 84 99 94 96 99 99 92 39 47 77 99 99 100
24 24 23 20 24 39 44 54 74 99 99 99 100 92 98 98 98 99 99 100 97 91 100 96 97 96 99 99 98 97 97 98 99 97 94 99 99 89 91 99 100 99 100
30 26 26 23 21 20 16 17 18 26 65 91 86 69 76 84 97 97 98 98 99 99 97 98 98 97 98 94 99 97 98 98 98 99 94 98 100 98 100 85 100 100 100
22 20 22 20 21 20 14 16 20 20 18 18 19 63 93 88 83 92 98 100 96 98 99 99 100 100 99 100 99 99 99 99 100 98 98 99 99 99 99 90 100 100 100
27 22 18 16 15 14 17 21 23 18 18 19 19 19 20 32 62 78 90 100 100 99 98 99 99 99 100 100 99 99 99 98 98 98 98 98 99 99 100 100 99 100 100
45 42 37 31 26 22 18 18 18 22 22 18 16 17 22 28 30 33 29 57 84 95 99 100 100 98 100 100 99 99 100 100 100 100 100 100 100 100 100 100 100 100 100
38 40 48 52 54 52 42 31 24 21 20 22 22 22 24 25 25 29 38 49 37 35 63 73 92 99 100 100 100 100 100 100 100 100 100 100 100 100 100 100 100 99 99
26 25 24 23 23 30 44 53 51 43 35 32 28 26 25 26 25 25 25 29 31 35 38 42 52 64 80 92 94 92 96 100 100 100 100 100 100 100 100 100 100 100 100
27 29 29 29 29 28 27 24 25 30 35 41 38 34 37 34 27 26 27 27 25 23 23 23 25 36 48 59 79 95 99 99 99 96 96 96 94 98 99 97 97 98 95
22 22 25 28 28 27 26 26 29 31 32 31 28 28 28 27 30 28 26 24 24 26 25 24 23 21 21 21 22 26 36 57 81 97 100 100 99 100 100 100 98 91 83
20 17 17 18 19 23 24 23 22 21 22 24 28 30 30 30 29 30 29 26 24 22 20 19 17 16 18 18 18 18 20 22 29 35 41 44 46 47 47 46 44 43 41
17 12 9 9 9 10 12 13 14 14 15 16 18 20 22 23 23 24 24 24 24 24 24 24 23 22 22 22 23 26 28 32 35 37 40 41 43 46 47 46 46 46 45
15 10 9 8 8 8 8 8 8 9 11 14 16 18 18 18 18 19 19 19 19 19 19 20 21 22 22 24 25 26 27 30 33 36 40 42 44 44 44 42 39 36 34
15 12 11 11 12 12 13 13 12 11 11 10 10 10 10 11 12 13 13 14 14 15 15 16 17 19 21 23 24 26 27 28 29 29 30 31 31 32 32 32 32 32 31
16 14 14 15 16 20 22 23 23 22 20 19 18 16 14 12 11 10 9 9 9 10 10 11 12 12 14 15 15 16 17 20 23 25 26 27 27 27 26 25 23 21 18

GFSGL_500_rhum_120.txt.gz
RH
98 96 85 67 59 54 52 47 48 58 65 68 68 71 79 70 64 65 44 46 44 29 28 43 40 18 12 17 62 75 77 95 95 96 97 96 97 97 95 96 95 96 97
89 83 79 74 66 60 57 60 51 44 40 56 65 61 71 77 84 93 95 65 36 34 33 50 45 20 14 15 22 48 74 86 88 96 98 97 93 95 92 92 93 93 95
83 74 66 64 59 52 52 46 34 37 31 31 64 72 68 77 84 91 97 90 50 39 34 51 52 24 17 16 20 34 52 80 87 97 96 96 96 97 96 93 95 97 97
82 73 70 65 61 61 52 44 52 52 44 64 60 64 69 78 87 96 98 96 70 45 40 58 61 31 19 16 19 20 25 61 71 94 98 97 98 98 97 97 98 98 97
80 75 67 64 62 54 58 59 67 72 65 45 36 53 72 88 96 94 93 99 94 55 52 60 70 44 21 20 16 18 22 22 33 91 95 97 98 98 97 100 98 100 97
23 22 23 30 62 55 38 22 19 21 51 58 67 96 75 77 87 85 79 98 96 93 76 68 67 62 26 22 20 16 16 20 19 23 80 96 98 98 98 98 98 97 94
33 36 18 12 21 50 34 20 20 19 22 48 67 65 65 76 70 98 97 98 97 88 72 72 74 76 41 24 24 21 18 22 21 17 16 19 26 30 42 38 32 35 40
40 26 23 21 15 14 14 18 33 34 35 55 69 61 56 58 75 97 84 95 86 77 80 90 89 95 61 34 31 27 26 22 26 26 23 22 22 22 23 23 24 22 23
52 55 58 52 54 39 23 18 36 49 43 39 40 52 49 43 59 94 97 92 87 80 81 91 95 100 96 47 32 32 27 26 29 25 24 24 23 22 22 23 24 24 25
63 64 58 64 63 54 43 41 33 39 49 52 46 49 81 97 97 100 98 95 95 98 91 88 93 90 87 95 71 42 38 49 37 29 35 48 63 65 52 43 28 27 27
61 55 50 55 57 63 76 93 88 73 76 93 82 75 65 61 79 98 98 98 98 94 99 100 90 89 86 97 98 80 54 63 74 77 40 56 83 99 97 96 96 95 44
23 21 20 23 23 22 28 48 61 79 87 88 93 94 81 87 87 95 98 97 96 99 96 100 94 84 100 97 99 98 91 89 79 85 78 76 86 94 97 98 98 100 99
25 23 21 21 22 24 24 22 22 25 33 39 60 87 100 98 100 98 98 99 100 99 98 99 86 84 88 83 87 100 98 98 94 98 100 89 95 95 90 98 97 96 98
35 34 34 32 31 30 29 28 24 22 19 16 17 18 29 85 98 98 97 97 98 97 98 98 99 98 99 99 100 100 100 99 99 99 98 98 99 100 94 99 97 98 99
32 32 30 28 26 24 26 25 24 20 20 18 18 21 19 20 23 49 75 88 77 67 83 98 98 98 98 99 99 100 100 99 99 100 100 100 100 100 98 98 97 97 99
33 34 35 35 34 31 25 21 19 18 18 16 17 22 22 20 19 19 21 34 40 75 78 79 84 98 99 99 99 99 98 99 100 99 99 99 99 99 98 98 99 98 98
22 23 24 26 27 29 30 29 25 25 22 19 18 17 17 19 22 20 18 18 19 20 28 63 64 83 85 95 99 99 99 98 99 99 98 100 99 99 99 98 97 100 100
18 18 18 18 18 20 22 23 24 26 28 28 25 24 24 22 22 20 20 22 22 23 24 29 41 53 70 73 76 82 94 97 98 99 99 100 100 100 100 100 100 100 100
18 18 18 18 17 16 16 16 18 21 23 23 22 26 38 38 32 30 30 28 24 23 23 22 22 26 30 40 53 70 79 87 97 100 100 100 100 100 100 100 100 100 100
23 23 22 22 20 17 16 16 15 15 17 19 23 24 23 21 27 39 42 41 39 36 31 26 28 28 26 25 25 27 28 34 49 67 80 92 98 98 100 100 100 100 100
28 29 30 30 24 20 17 14 14 14 15 17 18 23 26 25 27 28 27 27 31 38 36 34 34 30 27 26 25 24 24 23 22 22 22 24 24 28 31 48 75 93 97
37 38 39 34 29 26 20 13 8 8 9 11 14 16 20 27 27 25 25 27 30 30 29 29 29 28 28 29 26 23 22 22 21 20 20 20 21 21 24 29 31 38 43
45 50 48 41 39 38 26 16 10 9 8 8 7 8 11 13 16 18 20 20 20 21 24 28 30 30 30 30 30 28 27 25 24 23 24 24 25 26 28 30 35 41 47
60 58 54 53 52 38 25 14 13 12 12 11 10 9 8 8 8 10 13 15 17 17 18 19 21 23 24 25 25 25 24 24 25 25 26 26 26 27 28 30 31 33 34
66 66 64 65 50 36 21 17 17 18 19 20 19 17 16 15 14 12 10 10 11 13 15 17 18 19 19 20 20 20 20 21 21 22 22 24 26 28 30 32 32 32 33
72 66 68 65 48 29 20 20 24 30 37 38 37 34 29 26 23 21 19 17 14 13 11 11 11 12 12 13 13 14 15 15 15 16 16 18 18 20 21 23 24 26 26

GFSGL_500_rhum_123.txt.gz
RH
91 97 98 98 97 98 97 94 74 66 70 75 78 80 74 60 58 72 81 79 88 70 76 56 85 63 32 27 43 17 16 39 55 57 87 97 96 97 97 97 97 98 97
99 97 98 96 98 97 99 96 86 64 55 52 60 68 69 75 73 76 83 79 80 85 97 94 90 64 42 28 48 20 16 28 53 69 78 99 93 97 96 96 96 96 96
99 100 99 99 100 95 91 88 82 69 64 59 54 51 58 56 58 69 75 77 78 88 94 97 94 68 42 30 53 27 16 21 32 64 77 90 98 97 97 97 96 95 90
96 97 85 76 83 84 77 75 71 64 55 60 58 51 37 31 25 45 71 74 72 86 96 99 97 90 60 34 55 39 18 17 22 37 74 89 99 98 96 97 96 96 94
89 83 72 57 73 77 72 67 62 62 61 59 50 47 49 44 49 64 55 57 81 98 96 100 98 94 58 39 45 55 24 18 19 21 55 51 87 98 97 98 98 98 98
90 78 66 49 57 60 61 60 61 60 55 61 64 62 66 62 62 52 50 76 96 100 100 100 100 98 87 41 46 66 40 20 18 19 25 21 76 95 99 98 98 97 93
36 31 26 42 50 34 22 26 34 56 62 47 27 26 37 98 60 73 97 92 84 96 99 100 89 99 98 85 59 77 68 28 22 21 18 21 25 58 95 97 98 97 97
47 50 53 47 40 31 24 15 12 13 29 41 25 21 20 36 64 93 98 90 91 97 97 96 97 94 99 75 63 83 90 53 29 29 24 21 22 24 24 27 34 42 52
59 61 61 62 63 65 68 68 61 29 16 15 15 26 24 21 36 83 99 88 82 98 97 98 93 81 96 91 70 88 98 96 56 32 32 31 27 24 26 29 31 29 27
75 70 64 64 65 61 58 61 76 92 64 39 35 44 52 47 57 66 72 71 64 66 98 84 96 99 93 88 78 90 94 100 96 76 34 32 34 31 30 24 26 29 33
38 27 28 31 21 24 24 24 29 44 72 94 99 82 72 70 74 62 66 64 99 100 98 98 97 91 100 91 85 100 94 90 100 98 92 88 38 41 54 37 36 64 89
20 21 22 22 21 21 21 20 20 21 23 30 47 62 87 96 98 100 84 52 64 88 95 99 98 96 98 97 94 88 95 99 99 91 98 98 73 66 81 84 66 58 81
22 25 26 26 27 28 28 29 29 29 28 26 23 24 26 26 62 88 93 94 89 92 94 95 100 99 97 99 98 100 99 100 100 100 98 91 98 80 86 95 89 83 83
7 8 7 10 14 17 19 22 24 25 26 27 28 26 22 20 17 17 22 72 100 100 98 100 100 100 99 99 99 99 100 100 99 100 99 98 98 98 96 97 98 99 98
14 14 14 16 17 19 25 28 29 29 27 25 24 23 24 23 22 18 20 20 21 45 96 98 98 99 99 99 98 98 99 99 100 99 100 100 100 100 100 100 97 99 100
14 14 13 13 13 12 12 13 15 20 25 30 30 29 26 24 21 20 18 21 22 20 24 44 88 99 100 98 98 98 98 99 99 99 99 100 99 99 100 100 100 100 100
16 15 14 14 14 14 14 12 11 10 10 11 15 23 29 30 28 28 24 20 17 21 22 20 20 31 50 76 82 77 81 98 100 100 100 99 100 99 100 99 100 100 99
19 18 18 18 17 17 16 15 14 13 12 11 10 10 11 15 22 26 27 30 31 24 19 21 21 19 22 28 29 43 67 84 92 99 100 100 99 100 100 100 100 99 100
23 23 22 22 21 21 20 19 18 17 15 13 12 12 12 12 12 13 18 23 24 30 43 38 28 22 21 21 22 26 34 46 58 81 87 93 96 100 100 100 100 100 100
25 27 29 29 30 28 28 27 25 23 20 18 14 11 10 11 12 13 13 14 18 21 22 27 46 44 33 26 24 26 26 26 29 34 41 56 87 100 100 100 100 100 100
36 38 38 37 36 37 38 38 36 32 27 22 16 11 9 8 8 10 14 16 16 18 23 25 25 27 39 46 41 34 28 27 27 27 25 25 25 25 25 33 47 66 74
43 44 44 46 46 48 50 47 41 38 33 25 17 13 13 13 9 7 8 13 16 18 21 27 29 29 30 30 32 38 40 38 36 32 29 27 26 26 25 24 24 23 23
50 52 52 52 56 52 42 36 34 31 32 28 23 19 14 12 11 10 8 8 9 13 17 19 27 30 29 28 29 31 32 32 32 32 31 30 30 29 27 26 25 24 24
60 60 60 58 42 26 19 18 22 32 40 35 23 18 17 18 18 15 13 11 10 9 9 12 15 19 23 25 25 24 24 26 29 32 32 32 31 30 30 30 29 28 27
69 66 56 31 17 16 17 21 33 48 40 26 23 24 28 33 35 31 26 22 18 15 13 11 10 11 14 17 19 20 20 20 20 22 24 26 27 27 27 26 26 26 26
72 52 26 16 17 17 19 30 44 42 34 31 33 36 44 52 46 42 38 34 30 26 22 20 17 15 13 12 12 14 16 17 18 19 19 20 20 20 20 20 21 21 21

GFSGL_500_rhum_126.txt.gz
RH
64 93 77 74 56 64 79 62 97 86 98 98 94 91 77 76 82 89 93 87 74 62 80 90 91 95 78 86 60 71 51 24 23 20 20 48 70 75 97 94 94 96 97
47 44 46 50 94 95 92 92 100 96 97 96 95 93 81 82 85 86 83 74 72 71 86 91 84 96 94 96 93 84 57 31 22 27 14 28 64 78 88 97 97 98 97
64 66 83 91 99 100 97 98 96 97 97 97 96 93 69 72 65 71 70 74 66 75 82 84 84 84 94 99 97 97 64 43 22 30 15 17 27 72 74 98 98 97 97
99 97 99 95 99 97 91 92 93 92 97 95 96 92 85 74 62 59 62 63 74 70 61 62 76 78 92 98 98 100 85 49 24 35 23 14 23 52 80 97 98 96 97
99 96 98 96 96 83 73 68 84 86 76 71 82 80 80 76 68 63 54 40 31 30 35 65 70 92 91 98 96 100 93 76 29 38 33 15 16 23 68 100 96 96 95
100 96 92 93 86 80 67 75 83 85 84 73 64 60 64 66 63 59 49 47 51 55 56 64 58 72 94 100 96 98 97 90 45 36 44 22 16 19 37 52 85 97 94
94 92 58 40 38 32 41 50 42 40 45 56 60 61 59 57 56 59 56 54 58 70 68 69 62 79 100 98 96 97 99 99 80 45 62 32 20 19 18 22 44 85 97
97 88 85 73 60 58 55 40 30 35 34 26 25 38 41 58 44 44 96 58 99 98 82 95 98 96 95 99 96 91 97 96 98 68 81 60 28 25 21 19 23 27 69
92 78 74 69 59 61 66 69 67 70 61 46 30 17 14 16 46 37 26 22 64 93 97 84 99 99 94 98 98 96 93 99 100 80 93 89 57 38 32 26 23 22 21
67 72 74 69 62 60 48 48 46 41 52 76 82 70 50 38 27 32 39 44 33 31 63 85 97 99 92 98 94 91 86 92 98 83 80 94 93 87 40 30 31 28 26
16 17 20 22 21 23 25 24 23 23 23 22 24 40 71 93 98 83 75 70 66 52 51 68 90 71 66 85 76 96 100 96 99 97 81 79 88 92 99 85 38 27 29
24 25 25 25 26 25 24 23 22 22 24 25 25 23 23 25 34 55 86 94 97 99 84 67 78 97 95 99 99 99 98 98 100 93 83 83 97 85 96 99 99 91 87
5 5 5 5 5 4 5 5 5 6 6 7 9 12 18 27 27 24 23 28 57 96 100 100 83 89 90 83 95 95 98 99 97 96 95 95 100 87 86 96 97 98 98
5 5 6 6 7 7 7 8 8 8 8 9 8 8 11 14 16 22 27 24 20 17 22 64 98 100 100 94 100 98 99 98 99 99 99 89 80 81 85 86 91 97 94
8 10 10 10 10 10 10 10 10 9 9 9 9 9 9 11 14 19 20 20 25 24 20 17 20 56 98 100 98 100 100 100 98 99 99 99 99 100 100 98 96 98 96
14 14 14 14 14 13 13 12 13 13 12 11 10 9 9 8 8 8 10 18 26 24 22 22 19 20 20 27 72 100 100 100 100 99 99 99 99 99 100 100 99 99 99
19 20 19 18 16 16 16 16 16 14 14 14 14 13 12 10 9 8 8 7 7 12 26 27 24 21 20 22 21 23 54 99 100 100 100 99 99 99 98 100 99 100 100
22 21 20 20 21 21 21 20 19 20 21 21 19 18 17 15 13 12 11 10 10 8 7 11 23 28 26 21 20 22 21 21 34 96 100 100 100 100 100 100 99 100 100
28 28 28 28 28 28 28 27 27 26 25 24 24 22 19 17 16 15 14 13 11 11 11 9 9 12 22 28 27 24 22 22 22 29 57 97 100 100 100 100 100 100 100
35 34 33 34 33 33 31 30 29 28 28 26 23 20 17 14 12 11 10 10 9 8 9 11 11 11 12 16 24 29 34 32 27 26 24 27 38 56 74 99 100 100 100
38 38 38 39 38 37 35 34 34 30 24 18 12 9 7 7 7 7 7 6 6 6 7 9 10 12 14 15 18 24 25 38 45 40 34 30 29 29 32 43 51 65 85
40 40 42 44 43 41 42 37 25 16 10 9 9 10 11 12 13 13 12 12 12 10 10 9 9 9 13 18 19 22 28 28 29 42 47 43 39 33 29 28 28 27 28
46 46 48 48 47 47 35 18 10 10 12 14 15 15 15 18 25 29 25 19 16 15 14 12 10 9 9 14 19 22 30 33 34 33 33 39 45 43 40 36 33 29 27
51 52 52 51 50 34 14 10 12 16 18 17 15 18 31 40 36 27 25 26 28 26 23 19 15 12 9 9 11 16 19 27 32 33 33 34 35 35 36 38 39 37 35
57 58 56 53 34 13 11 13 18 20 20 18 21 32 38 36 33 33 39 46 44 41 37 32 27 22 17 13 10 10 11 14 18 24 28 28 28 29 30 32 33 34 34
66 64 58 34 13 11 13 17 21 23 24 24 26 31 34 34 35 36 42 56 56 48 45 42 37 32 28 24 20 16 13 12 11 13 15 19 22 23 23 23 24 24 25